GFSGBSN_con_3kmhel_000.txt.gz
Helicity
72 63 92 90 67 67 54 34 22 16 20 31 43 37 41 38 30 20 6 9 3 9 13 -10 6 -15 4 34 97 22 11 35 81 76 57 32 58 50 -23 -25 22 18 -15 17 49 63 80
89 69 96 84 70 71 40 34 28 16 22 28 42 43 44 26 19 6 -2 13 13 15 -3 21 4 -22 13 60 10 7 -20 32 59 141 73 65 39 43 12 17 16 0 0 41 42 94 103
96 82 98 94 77 68 41 33 33 16 22 37 51 33 27 17 5 -4 9 27 23 7 21 20 1 14 34 111 13 58 82 130 119 170 129 128 41 46 20 22 37 51 65 85 114 107 92
99 87 96 99 77 61 39 33 33 19 21 28 40 26 24 10 -3 -3 31 24 22 31 23 6 -2 -7 77 43 49 93 68 78 86 113 116 55 33 39 19 58 108 65 53 48 31 61 57
110 94 89 88 73 55 38 33 37 17 20 22 27 14 9 -5 -11 7 25 21 26 41 22 -7 -23 7 88 74 68 37 42 61 44 25 36 24 15 35 111 133 110 62 29 37 -21 28 18
116 104 90 85 68 50 35 28 35 18 17 14 17 -1 -6 -13 -10 7 23 33 43 42 24 -15 28 37 47 77 66 33 44 32 19 44 55 43 100 110 99 71 50 18 -36 1 -12 19 78
112 108 88 80 64 46 30 22 20 17 6 -1 -1 6 -4 -22 0 15 30 40 47 24 -10 1 28 34 70 98 69 50 49 41 25 40 68 93 111 90 56 11 15 18 18 28 46 44 112
120 111 92 79 50 39 27 19 11 12 4 -1 -6 5 -5 -4 2 -6 13 57 41 30 43 66 86 61 82 41 91 59 44 47 45 74 89 102 104 57 55 61 54 47 55 67 99 173 124
135 119 95 83 43 34 22 14 10 -7 -9 -1 0 19 -9 -7 -6 -11 38 98 74 88 93 60 38 62 56 17 60 88 57 42 56 93 103 36 57 73 66 74 46 61 52 30 100 183 139
136 126 97 80 44 28 20 16 -1 -10 -5 -19 -10 29 -14 5 1 32 110 100 92 58 55 88 71 66 36 46 84 90 69 44 99 50 64 34 62 25 62 43 34 65 64 83 106 160 118
142 130 105 78 45 25 21 19 17 11 3 -34 -28 45 -8 -15 99 106 97 99 44 54 44 46 51 34 47 22 49 94 73 72 103 114 85 77 66 66 39 39 34 64 93 92 122 159 160
146 122 103 83 47 28 17 22 33 26 20 -30 14 49 -24 83 100 122 111 45 51 35 57 48 49 40 54 78 99 104 87 96 84 112 155 102 87 73 58 63 71 63 115 150 137 133 134
123 117 104 84 55 25 26 48 46 31 52 -20 75 59 79 70 115 96 78 57 47 23 42 46 39 45 60 88 101 97 115 147 71 70 96 107 88 85 83 80 78 88 109 107 110 130 113
141 129 113 83 61 34 42 65 58 33 81 60 94 70 91 56 76 109 72 61 44 49 51 60 45 65 28 43 87 128 110 102 115 66 80 51 70 80 102 79 63 93 84 89 -6 8 31
138 132 110 79 65 55 73 75 61 44 81 67 94 113 153 109 71 55 52 26 70 60 52 38 98 60 53 63 61 98 113 87 81 73 52 52 54 83 81 67 58 58 76 58 57 -2 33
127 124 100 78 72 72 94 85 62 62 69 80 141 143 160 152 80 72 38 64 81 66 59 58 57 43 47 65 88 100 90 83 77 73 53 26 47 65 70 52 78 40 38 41 75 46 44
116 131 98 77 77 90 106 89 74 75 59 64 161 171 178 169 99 71 6 76 93 98 55 25 25 42 56 86 83 83 54 60 70 77 75 54 55 59 64 72 63 62 41 53 39 39 20
138 129 106 87 81 97 115 86 91 87 88 168 185 155 203 159 97 62 12 69 100 107 65 48 63 33 34 86 95 72 24 39 59 60 53 76 40 82 54 61 45 40 23 37 35 18 54
144 120 110 100 84 102 110 92 95 104 59 195 194 172 196 123 46 70 61 99 100 104 57 43 51 33 53 73 78 64 45 60 62 54 37 47 63 97 91 68 63 31 51 70 71 66 50
134 113 114 101 96 102 103 108 95 97 72 185 191 144 182 131 84 38 59 86 93 80 52 35 52 71 82 87 106 46 67 72 61 60 94 89 70 47 3 20 59 49 71 92 93 75 67
120 111 119 104 98 100 99 106 106 90 103 190 201 111 115 125 117 72 86 73 69 57 52 59 74 70 43 53 69 56 48 66 84 82 95 94 54 77 78 84 67 51 61 90 101 108 104
104 110 104 94 97 100 89 101 112 106 158 193 150 105 151 123 156 139 89 51 57 65 57 43 37 61 57 10 -1 -22 42 43 45 92 96 109 55 84 72 99 104 64 55 83 117 131 105
110 101 100 97 95 84 93 103 118 128 202 191 199 169 94 152 189 173 110 88 62 74 87 56 34 60 65 43 48 68 76 101 69 59 92 105 79 90 54 102 103 51 77 147 157 159 175
111 101 99 99 93 92 97 103 115 129 189 190 170 138 119 138 151 134 128 129 73 53 47 86 93 84 51 51 94 143 191 155 154 147 96 95 138 141 90 131 113 91 112 97 119 110 174
110 113 107 92 91 98 99 105 126 111 157 159 149 102 102 127 151 171 151 158 176 181 134 118 108 65 44 115 110 118 117 97 115 122 142 124 134 166 155 139 148 146 120 131 166 107 203
122 110 97 101 114 114 115 130 138 111 121 120 92 90 71 97 138 166 221 190 163 188 176 150 130 167 113 110 125 107 77 73 98 94 105 142 161 170 197 195 153 95 107 127 176 188 156
107 95 98 106 103 120 148 170 154 101 65 15 61 86 87 104 204 150 178 179 154 210 191 158 162 124 117 148 157 125 104 84 85 87 70 124 151 157 205 201 185 88 147 191 229 89 92
98 104 104 95 109 140 172 217 164 99 84 52 70 113 58 116 184 150 140 154 133 154 170 133 222 137 150 166 147 106 119 79 117 111 93 101 115 120 184 220 165 141 241 180 97 108 66
105 110 99 88 148 144 200 198 184 146 102 106 119 78 67 119 129 147 120 109 91 73 136 150 95 95 103 173 146 131 156 151 155 142 151 144 128 132 135 137 112 15 61 71 134 128 131

GFSGBSN_con_3kmhel_003.txt.gz
Helicity
97 86 77 74 66 85 67 64 56 47 35 28 22 10 26 47 62 68 36 23 2 17 19 -5 -31 -41 -25 -6 51 18 15 38 9 6 -2 20 37 39 8 7 5 68 68 -5 -22 -30 59
101 105 90 81 73 99 61 64 58 54 29 27 23 11 37 53 55 41 25 15 6 38 12 -9 -26 -72 -26 26 23 16 -18 17 53 89 49 50 23 41 16 71 90 7 -6 18 52 89 37
94 106 99 97 92 103 71 73 65 55 28 26 22 15 40 55 42 24 16 17 41 40 13 -14 -5 -36 -15 68 29 34 30 58 79 133 106 132 78 66 17 43 28 14 49 62 102 70 47
96 99 94 96 98 101 92 75 61 48 26 24 19 24 49 44 20 13 13 42 58 31 6 0 -23 -12 21 38 24 112 93 89 74 88 113 50 70 29 46 27 74 42 54 67 74 66 42
134 101 96 95 105 102 87 64 59 41 27 33 18 31 40 34 1 8 25 54 48 26 9 -8 -14 16 6 75 70 64 48 57 17 10 10 8 47 38 58 52 80 89 50 49 66 88 16
155 112 101 105 100 92 78 60 55 37 38 40 21 30 32 12 -2 26 41 42 35 17 13 17 2 18 52 58 74 72 35 30 19 11 13 -1 46 66 99 71 41 41 51 23 32 56 85
194 147 100 110 104 83 66 52 46 36 39 40 20 20 22 2 14 35 44 53 58 19 -5 3 -4 7 88 90 62 67 59 36 13 44 54 53 53 79 54 78 33 34 64 48 57 24 53
237 166 113 109 109 83 65 49 42 37 29 31 15 10 14 -6 39 7 19 43 22 32 48 -9 10 61 84 60 83 93 39 59 41 79 67 113 132 91 64 53 47 48 31 44 84 78 60
211 168 157 106 115 93 69 48 36 39 22 27 13 7 -2 -2 0 -10 4 -1 15 63 51 8 16 32 46 16 64 71 64 50 52 97 101 59 72 75 105 94 68 62 15 7 41 147 131
192 181 169 118 118 97 75 49 28 37 25 18 10 -2 -19 -5 6 11 33 20 48 60 45 46 40 52 26 23 73 112 97 53 71 70 104 96 77 45 59 58 44 36 18 56 92 105 78
149 179 155 161 120 108 88 53 29 29 19 11 1 -26 -29 -38 58 10 35 36 33 91 35 54 52 32 50 29 49 117 110 89 78 78 78 74 17 43 30 49 49 29 58 94 73 70 63
169 166 138 164 114 119 86 53 37 21 17 13 -19 -48 -55 0 60 98 96 46 71 79 59 54 61 59 65 97 75 88 68 102 102 130 172 85 107 63 41 60 70 20 117 134 114 102 83
124 153 143 143 109 122 85 52 48 26 29 9 -33 -66 -6 41 96 86 67 75 73 33 34 47 46 38 48 52 65 77 98 115 100 105 105 107 93 68 46 65 99 94 112 86 72 102 73
115 82 85 79 96 126 85 56 50 38 39 14 -5 -25 66 55 75 82 93 74 41 29 47 58 48 68 27 54 84 102 98 90 115 82 71 16 22 76 111 85 68 91 85 91 48 68 65
107 7 81 46 105 128 81 69 49 43 32 18 14 48 68 40 104 64 63 50 57 42 40 32 77 56 43 58 51 80 81 74 76 74 29 39 53 87 95 92 87 74 91 99 96 42 -4
55 -10 61 91 113 131 83 74 45 46 31 21 117 95 120 74 69 81 53 49 60 54 62 64 47 45 30 43 53 71 80 68 61 68 74 33 61 69 57 68 92 60 69 46 43 1 26
40 19 66 130 125 133 91 69 45 62 37 17 166 122 184 103 126 104 19 44 69 89 48 41 48 66 60 66 63 76 54 67 65 72 78 62 57 46 46 51 38 65 63 81 63 53 7
28 14 -11 139 125 133 89 66 49 64 67 120 203 168 217 166 160 100 13 37 64 99 61 54 47 67 58 81 91 81 54 64 62 68 52 74 53 60 69 53 61 60 46 40 18 14 49
-4 -253 32 151 151 123 98 61 60 63 85 228 224 236 244 156 120 118 56 57 80 109 95 51 47 49 52 58 71 83 68 70 55 48 43 53 78 77 73 57 61 37 45 57 80 67 37
-53 -172 113 159 158 122 103 71 65 84 40 205 242 236 259 157 129 67 67 69 92 103 96 61 38 73 49 60 84 60 77 65 71 70 96 90 71 44 -3 39 59 62 62 81 87 62 65
-150 -107 303 161 122 107 99 85 85 98 56 184 242 223 210 163 170 83 92 61 88 98 79 66 47 30 33 46 81 67 76 78 89 83 88 71 42 83 76 79 53 50 52 70 90 115 99
-274 157 216 149 103 91 101 91 106 108 117 169 186 186 223 116 168 116 114 89 76 82 63 45 31 51 58 21 27 14 64 36 43 97 90 97 58 89 53 86 88 48 41 71 83 111 90
70 240 132 92 83 98 100 124 108 115 225 172 215 219 147 164 193 148 119 106 68 76 83 65 24 47 45 44 56 75 93 126 75 67 94 91 93 86 63 105 106 30 46 135 162 162 154
315 137 103 71 85 94 107 120 118 108 179 183 201 192 120 122 159 123 101 123 96 72 55 74 66 48 40 56 99 162 199 163 158 155 100 88 129 130 109 143 135 97 117 123 100 113 132
128 98 58 72 89 97 110 122 113 107 72 199 194 137 97 89 113 158 116 169 191 161 113 89 94 66 19 106 94 90 81 72 98 133 135 108 114 135 143 143 141 135 119 101 96 103 105
102 61 67 81 92 108 106 107 117 107 96 203 197 164 95 90 105 108 180 182 211 176 149 113 120 123 101 101 101 65 50 50 63 78 90 125 143 137 141 143 118 95 105 97 96 112 93
77 76 81 89 101 106 104 97 92 91 95 177 173 152 71 84 97 154 178 185 220 248 188 161 143 100 94 112 112 81 66 87 68 71 69 109 127 123 165 149 126 79 139 139 181 98 121
86 93 103 109 111 107 101 84 83 89 108 126 121 103 64 78 147 154 146 178 218 208 189 150 221 138 136 138 112 86 97 93 106 92 78 89 104 110 145 172 119 95 120 141 103 88 91
97 103 105 105 106 98 89 87 87 90 64 70 45 81 66 72 118 167 128 141 123 94 177 178 112 107 115 162 126 124 144 142 136 121 98 112 104 118 96 114 91 16 60 95 129 121 132

GFSGBSN_con_3kmhel_006.txt.gz
Helicity
84 88 92 88 78 76 77 78 58 63 62 43 48 53 46 31 25 35 68 54 31 16 0 7 -9 -28 -46 2 -6 21 11 52 11 -23 11 -5 12 29 17 12 -11 64 28 -27 15 -6 21
96 104 103 93 91 78 79 92 80 63 58 41 41 57 39 41 36 50 62 45 29 17 17 14 -10 -32 -35 8 -19 -10 6 43 37 60 33 32 32 40 48 34 72 42 17 26 -1 22 53
149 102 108 110 102 89 84 97 94 63 52 40 37 52 40 49 44 57 52 38 27 27 29 11 -22 -15 -46 -14 0 16 26 10 30 59 41 59 41 51 62 32 42 16 16 33 20 47 64
155 145 121 112 116 102 92 95 91 68 47 37 32 47 44 56 53 58 41 40 40 34 36 -12 -16 -18 -30 -41 24 104 98 58 29 37 35 22 51 92 61 8 37 3 2 35 77 15 3
144 158 121 121 118 109 103 97 90 65 39 34 33 47 46 58 53 45 51 48 34 28 20 -11 -12 -12 -13 -11 61 50 39 44 -2 -17 21 30 11 51 27 43 21 7 6 59 75 41 -1
75 150 154 142 114 108 111 102 94 66 37 37 38 47 47 57 41 56 64 27 19 3 8 23 12 3 2 15 70 42 19 3 12 -7 8 39 63 0 4 6 -9 -18 24 4 34 41 -1
74 119 145 140 138 109 109 99 96 72 38 40 39 44 44 45 43 85 50 32 9 6 -10 5 13 18 17 84 48 34 41 18 11 14 67 34 52 12 2 23 57 43 41 48 30 25 26
64 107 136 125 148 110 103 99 98 71 48 49 38 36 39 28 74 60 -11 -17 -19 41 33 -7 -20 -36 79 53 69 37 39 53 36 49 19 17 44 36 43 48 34 42 34 32 42 18 34
67 82 111 140 144 128 105 100 104 70 55 55 35 39 31 58 68 -6 -70 -30 8 70 72 9 18 11 45 23 58 55 74 34 39 96 36 14 58 60 30 26 17 41 24 17 10 73 53
92 74 78 141 139 154 110 102 106 72 59 60 34 34 30 94 -6 -46 -72 -1 19 -1 44 37 15 21 22 33 43 61 74 76 25 52 59 69 63 51 54 56 54 14 30 -6 1 18 1
107 88 91 80 142 152 123 108 111 75 64 57 40 23 44 -4 26 -46 -6 -2 -9 8 52 31 37 33 24 23 30 74 71 64 66 37 63 82 39 44 56 54 44 45 15 14 1 9 27
76 100 67 95 120 133 155 115 114 83 72 47 34 9 16 -99 -65 3 71 0 8 69 74 38 60 29 15 36 38 83 76 68 66 88 61 86 88 73 57 62 25 40 44 55 49 41 0
81 74 93 122 74 146 153 118 122 92 71 41 20 -3 -7 -57 -42 41 54 -4 49 42 35 34 40 37 30 31 33 55 64 64 82 106 67 68 75 64 50 37 40 8 9 -18 -12 24 3
92 62 103 123 66 149 110 123 134 105 74 44 12 -2 -46 -13 44 99 65 19 49 49 28 47 33 22 15 29 20 44 46 57 75 99 43 -13 -15 10 64 42 -19 -61 -28 12 24 34 31
99 95 92 136 91 72 101 116 138 117 76 45 16 10 -24 -18 80 75 118 38 52 47 26 19 21 9 14 30 44 38 52 41 67 87 31 14 42 78 95 91 75 59 22 110 82 68 8
62 81 96 147 71 65 86 127 142 118 74 33 82 13 -33 12 -8 60 115 72 68 39 47 48 12 25 8 4 15 29 18 55 59 69 87 42 18 68 68 78 115 84 93 16 12 -12 -8
65 54 31 49 56 70 84 113 151 119 67 -1 88 82 -6 51 55 93 37 64 61 33 46 47 29 32 17 20 28 17 17 47 63 59 77 58 57 52 57 38 42 65 21 51 41 37 5
71 30 59 50 7 -5 107 114 146 115 75 98 142 195 80 117 69 105 55 66 66 38 54 55 56 38 28 39 38 39 32 82 78 62 54 78 73 52 38 49 69 60 36 35 -11 -23 34
61 37 48 50 49 -56 116 130 159 112 117 226 205 199 147 218 44 122 70 55 73 50 65 52 57 67 75 61 75 73 77 94 68 55 49 65 66 58 32 27 38 28 39 51 58 47 17
59 31 23 26 8 42 154 143 136 92 83 204 222 171 209 176 141 72 61 49 58 73 89 78 56 70 62 56 71 55 73 80 80 68 77 61 62 43 16 38 47 43 38 47 31 41 43
42 32 -5 -40 -94 79 200 151 129 97 86 269 281 189 208 83 89 80 66 38 56 77 94 77 59 35 41 29 40 39 59 61 59 62 71 68 35 33 40 56 53 54 19 41 50 31 55
40 18 -7 -71 -144 251 200 151 141 99 127 276 248 246 278 89 84 89 85 55 60 66 78 56 29 42 31 21 27 29 51 46 56 60 65 81 37 49 27 61 73 58 5 23 32 31 35
35 2 -51 -117 -171 337 114 165 135 109 244 291 212 163 181 193 124 113 106 55 84 65 88 89 35 46 44 66 85 104 99 121 92 48 80 77 66 65 50 90 91 75 16 64 80 91 77
10 -8 -56 -16 251 257 156 148 126 97 155 275 164 165 181 176 127 112 84 102 77 77 70 83 55 53 57 69 117 143 141 140 118 105 94 66 103 108 74 86 105 117 104 124 70 42 69
3 79 115 305 232 198 138 120 118 86 102 264 180 191 184 147 95 124 92 97 99 116 121 93 88 64 55 93 72 45 48 47 73 103 102 90 90 96 100 91 98 80 88 81 80 94 107
81 89 305 231 144 135 107 118 111 79 67 227 209 162 167 95 95 62 74 107 129 123 123 116 120 123 101 79 53 15 7 16 14 44 91 119 117 114 115 84 56 125 132 119 101 86 157
263 249 166 157 149 99 114 115 91 78 36 234 175 196 121 75 82 75 98 107 166 189 147 130 110 92 107 75 65 32 26 53 26 38 44 81 105 92 118 100 96 106 129 99 126 181 157
160 173 157 130 103 100 107 94 89 72 23 228 191 194 138 90 58 110 94 141 175 197 191 150 164 119 104 81 71 59 59 58 57 72 53 63 82 94 126 135 111 112 102 111 144 105 93
210 164 104 80 77 82 80 81 84 81 49 217 206 198 187 92 104 97 131 126 179 134 196 138 152 119 104 128 127 98 105 116 101 67 72 84 96 111 85 127 114 36 55 106 114 103 96

GFSGBSN_con_3kmhel_009.txt.gz
Helicity
140 141 71 86 84 79 70 66 72 65 67 61 49 54 42 38 31 32 42 62 64 35 20 14 17 25 -20 15 24 30 40 48 37 -2 24 41 11 8 14 11 12 41 18 40 32 8 -7
123 125 120 85 85 89 77 77 76 75 80 61 51 52 42 44 35 33 43 63 48 32 15 12 26 9 -18 15 -4 16 14 54 31 62 70 40 26 32 44 9 7 -7 24 11 15 30 12
68 110 113 91 87 86 91 92 79 79 82 62 58 56 46 45 40 35 46 60 39 38 13 23 27 -18 -30 -14 -26 19 19 8 23 24 26 18 29 49 31 36 40 34 9 14 51 -5 -1
40 46 87 111 96 93 90 98 93 89 83 64 56 60 48 45 46 36 51 56 53 38 16 31 19 -31 -29 -45 -35 -9 41 28 34 35 15 16 35 67 61 33 30 49 -11 22 22 -8 13
43 47 41 80 103 104 88 90 95 96 91 68 52 54 49 43 43 36 59 66 48 26 6 17 5 -17 -14 -31 -37 5 34 30 -2 -11 9 12 29 39 54 70 13 18 -10 50 24 -24 13
47 45 57 37 89 74 100 87 98 101 89 67 57 50 50 48 40 40 65 38 45 0 -4 11 4 -13 -27 -33 5 16 2 -3 -19 -36 -15 34 36 86 78 49 -3 30 5 15 35 22 -34
32 35 50 63 68 74 94 81 100 112 86 70 63 55 47 47 39 73 57 33 15 8 -4 -4 32 -23 19 20 -9 -7 3 2 -5 71 50 49 37 28 10 29 26 45 -21 -3 58 24 -29
62 43 43 70 84 93 76 89 96 119 86 73 67 56 44 43 49 43 12 5 32 41 4 33 41 -23 -1 -12 -50 28 13 32 15 18 23 -1 10 62 21 13 34 4 -4 55 34 16 15
102 89 72 75 79 103 72 95 99 110 88 66 70 55 46 55 77 27 -4 -35 29 76 8 13 5 -23 -6 -11 -20 2 22 21 11 19 4 29 34 21 8 0 -9 -2 -6 27 26 12 35
164 114 107 86 93 87 94 93 104 110 92 67 71 61 50 109 38 -3 -7 -23 91 25 38 38 8 17 16 1 28 69 72 61 20 42 86 58 14 -1 -36 4 32 6 44 -25 0 35 26
168 142 110 101 92 104 104 101 111 101 96 80 78 63 77 -8 101 47 34 29 11 -11 107 62 42 52 26 -11 37 42 57 42 46 10 44 19 11 3 -11 65 31 70 -32 32 -1 15 -9
169 178 133 108 101 109 100 113 126 99 96 88 84 57 49 23 -28 45 54 65 5 83 94 58 42 26 16 6 21 51 53 63 39 34 38 14 61 56 61 36 50 28 34 16 15 10 -5
218 174 160 106 103 96 102 107 98 127 99 95 84 57 64 -1 39 1 41 -2 42 78 39 54 18 17 5 18 14 24 34 40 29 84 24 15 33 64 33 44 37 -13 -2 0 -5 -7 -22
275 234 170 127 102 100 121 84 78 144 109 105 83 53 33 10 46 100 -8 33 60 3 8 27 8 5 -8 34 9 49 24 10 20 16 3 39 41 67 54 2 -15 -16 16 7 0 27 22
199 228 163 111 116 99 144 78 60 151 130 127 92 59 18 -37 53 138 22 83 2 -8 5 25 16 10 -1 32 36 27 25 9 15 32 15 2 64 95 63 40 30 12 13 53 45 56 35
-32 144 200 128 101 109 166 94 53 162 154 135 126 76 -30 -36 6 81 95 -4 -48 30 47 28 4 9 3 1 19 16 18 56 66 62 90 40 31 18 68 41 36 61 76 39 53 9 -2
34 80 114 137 144 107 154 90 39 183 155 81 125 161 11 -34 41 98 46 -25 -48 54 47 36 17 7 25 0 7 3 13 58 47 44 57 40 35 1 44 8 2 48 21 45 67 46 -20
40 50 161 99 91 124 105 42 -7 218 141 150 159 254 57 53 160 80 -17 -60 48 38 39 57 85 21 31 14 8 13 14 27 77 66 11 45 37 48 -31 96 70 103 28 34 -6 -35 41
30 -17 160 106 66 60 35 32 -19 259 161 246 228 248 101 130 163 83 -11 -44 43 65 37 42 47 46 38 24 30 20 20 139 85 53 67 63 45 40 33 40 33 13 2 15 44 68 6
31 47 54 105 64 19 53 -59 -6 296 116 182 258 287 187 226 117 65 -40 1 34 114 67 56 50 45 42 55 65 55 74 89 83 86 105 99 35 48 -1 26 50 10 -10 13 10 25 -2
31 53 53 79 28 6 78 -39 37 346 85 213 274 232 262 215 119 27 20 52 45 73 88 43 47 27 33 53 52 62 48 61 65 69 68 76 46 11 35 54 60 44 23 -1 -10 13 -25
38 71 82 74 11 31 97 59 61 299 98 165 330 151 166 118 94 58 37 79 60 58 45 45 53 20 20 30 31 19 33 35 44 39 41 51 45 70 45 21 22 19 -18 -31 -9 -4 0
25 43 63 84 20 0 62 -2 167 196 187 219 157 119 142 152 109 87 66 71 58 47 104 84 43 57 26 82 121 115 135 106 96 48 43 58 75 56 37 67 56 17 -3 -13 10 14 40
17 39 55 41 34 -20 -12 96 314 171 167 241 199 149 243 184 130 111 76 125 87 48 58 97 93 46 85 92 119 124 105 93 91 128 90 59 66 65 48 37 39 54 83 82 64 31 37
36 54 33 54 -5 -36 -97 128 233 143 119 198 155 177 143 307 138 85 88 128 107 91 74 81 126 91 51 72 62 25 37 45 55 82 71 63 66 64 66 39 58 40 78 77 75 71 175
53 57 45 39 -74 -154 -77 255 157 145 75 125 242 174 92 213 122 76 96 121 173 154 122 119 101 112 95 88 70 12 -1 5 8 19 62 81 96 79 86 64 31 129 115 88 91 78 201
39 27 30 -41 47 14 226 286 124 134 81 114 224 137 102 163 80 67 123 138 132 142 120 139 96 95 116 95 78 27 10 46 1 4 12 54 75 60 62 72 70 142 106 87 97 210 150
3 -20 38 121 76 343 316 227 116 102 63 128 203 176 135 118 137 115 90 98 126 148 126 116 130 128 108 88 71 42 47 31 30 38 28 31 49 65 99 93 69 113 102 121 164 95 111
35 144 78 111 331 232 161 134 107 47 16 137 181 188 183 110 112 138 177 171 157 104 117 76 79 90 66 68 113 85 77 80 69 41 58 55 72 93 79 103 138 78 97 110 99 100 98

GFSGBSN_con_3kmhel_012.txt.gz
Helicity
83 92 113 119 90 75 71 73 71 64 51 47 45 44 50 50 38 35 31 35 34 50 36 25 11 25 20 23 21 45 48 40 29 11 12 65 18 3 40 26 -6 67 60 25 17 -35 23
52 62 83 113 105 75 68 72 77 67 62 55 48 44 46 48 41 39 30 34 37 45 27 22 14 25 6 22 23 27 35 68 37 17 -10 61 30 21 27 32 -2 34 39 27 2 -6 120
41 46 54 89 98 100 69 76 80 70 65 61 53 50 43 51 42 45 36 37 37 37 26 18 15 23 -12 -21 -33 40 48 49 52 35 54 29 50 30 33 64 39 19 40 39 26 13 14
46 45 45 51 70 78 79 78 77 76 71 66 55 49 46 49 41 42 37 39 37 36 21 22 3 8 -11 -23 3 4 72 58 61 53 32 50 49 56 65 84 49 15 -1 26 60 33 10
52 53 51 51 52 43 69 67 78 73 72 69 56 46 39 44 40 37 34 41 33 31 28 -2 11 2 9 -26 -20 59 32 42 40 25 2 8 14 61 83 115 74 69 4 22 -2 90 27
64 52 55 65 59 52 38 47 65 81 76 67 58 48 40 45 40 39 38 35 28 13 22 15 -10 15 3 -19 31 5 12 29 -12 -19 -8 33 38 68 138 89 39 52 55 45 -35 -3 5
99 64 55 61 72 59 53 47 61 80 74 69 63 54 43 46 37 43 41 32 60 43 5 -2 44 -21 -12 -16 12 -31 25 18 -3 1 73 37 43 70 35 29 19 40 60 38 13 25 -32
132 110 70 49 55 74 63 78 58 77 82 71 63 59 49 40 39 35 40 32 119 62 13 63 -4 -2 54 11 -46 -12 26 21 47 20 22 -10 32 9 27 39 41 37 58 12 22 26 -40
103 119 120 84 59 66 88 86 77 73 96 77 64 65 50 49 51 60 34 5 13 85 20 8 21 -20 12 4 -38 -19 23 23 17 -10 3 42 88 28 28 48 90 63 25 -5 39 11 -24
136 108 119 125 87 73 104 95 96 65 103 84 73 66 58 80 59 25 49 26 32 -5 46 65 46 -27 -15 -16 -29 -18 46 21 5 -0 14 41 61 51 51 34 25 42 170 24 41 -45 40
163 175 128 137 136 94 119 121 105 81 122 101 85 72 83 47 131 67 186 44 7 -4 129 70 57 14 11 -1 10 1 35 56 40 8 -6 16 12 32 -1 58 62 -4 78 -21 -9 1 40
161 204 167 134 155 133 124 143 128 112 140 128 95 85 80 65 26 79 112 108 -4 104 125 57 68 62 -10 6 -18 11 41 53 35 14 27 29 101 42 110 4 21 -8 -13 39 20 16 49
200 227 228 156 153 147 134 145 143 141 146 143 99 94 109 44 116 62 34 65 132 205 8 37 61 25 -4 16 -7 -1 20 11 41 45 21 11 75 42 5 16 15 1 -23 -24 25 22 -10
245 247 253 178 136 158 132 166 153 154 159 165 107 102 85 50 127 126 82 130 150 69 -11 4 31 18 5 21 -6 7 5 39 33 11 49 -7 23 68 49 15 75 -34 -4 22 14 -26 28
189 267 276 231 171 157 139 181 173 160 152 196 144 117 98 34 79 163 161 104 146 31 7 2 22 4 -9 3 2 16 -6 1 -9 -3 15 17 83 148 62 12 50 29 8 19 2 81 7
83 141 220 199 244 162 160 180 186 168 167 212 190 120 47 13 63 133 162 50 37 -86 -2 39 -8 6 -6 3 27 15 15 10 20 40 84 95 -13 64 45 44 30 23 52 34 32 9 12
14 48 89 132 211 219 182 152 189 172 145 143 141 175 28 49 98 196 86 55 -1 -51 -0 -2 -9 -2 -33 49 10 13 10 32 57 39 96 32 89 26 70 -9 -2 24 14 45 51 34 36
1 72 80 71 142 213 159 169 196 177 71 181 195 256 88 174 254 183 90 10 -32 -70 39 26 25 11 19 9 23 30 65 53 62 36 43 36 85 46 -14 5 44 84 49 38 75 15 55
5 71 86 24 57 157 164 176 211 130 46 247 317 235 122 136 201 181 101 38 -7 -56 44 -5 61 71 35 50 57 30 31 115 108 64 68 53 56 21 32 29 35 26 34 65 44 118 61
-4 73 74 47 79 107 123 146 196 85 49 219 330 290 220 214 215 164 78 41 71 54 14 23 42 46 42 68 42 31 43 96 90 112 115 116 52 22 15 2 51 81 -0 7 -6 112 51
24 70 70 50 54 76 142 87 163 30 65 219 381 287 327 314 188 188 79 91 51 37 42 20 20 20 54 63 36 56 42 113 113 115 103 103 59 53 48 23 48 93 33 -4 -15 50 -7
38 71 62 67 40 71 115 80 142 12 85 223 320 344 197 201 193 179 88 64 -4 39 50 58 66 48 20 36 42 52 18 119 72 66 68 75 94 101 72 62 76 20 58 41 45 20 13
32 25 42 63 75 99 96 65 88 4 117 219 296 207 134 218 179 151 118 37 15 43 13 20 26 12 1 88 142 158 119 90 47 72 52 79 90 89 58 88 90 26 2 3 5 21 45
2 -12 54 64 59 74 74 54 99 80 128 282 270 192 133 211 193 136 120 55 49 2 62 91 50 33 130 116 161 154 165 138 150 142 58 129 94 89 75 77 33 1 77 79 63 56 42
-1 34 64 53 45 77 58 55 66 36 161 279 58 124 96 194 173 124 47 46 24 26 55 91 113 114 77 101 120 101 86 78 70 74 124 75 102 93 81 51 38 50 60 70 75 93 176
-2 24 35 51 57 74 67 57 22 74 248 -5 153 65 173 151 164 88 66 78 80 130 237 236 127 105 105 123 109 44 26 21 31 43 88 104 131 89 65 60 30 78 106 81 74 79 202
19 33 56 70 81 66 56 14 44 48 167 -8 -11 55 106 175 117 93 135 129 102 128 201 145 176 180 170 111 93 59 46 41 29 24 32 66 87 71 76 56 63 119 113 75 97 187 184
46 58 76 78 53 70 16 54 41 164 37 20 -44 109 195 274 141 180 108 113 114 128 196 142 165 156 141 105 85 80 71 48 45 26 24 29 49 48 97 71 33 108 112 118 179 116 133
60 64 72 50 54 18 23 140 95 185 18 5 70 59 194 121 293 287 238 272 145 91 123 102 128 83 77 82 106 101 94 97 99 50 73 61 57 62 70 77 117 86 173 136 118 123 112

GFSGBSN_con_3kmhel_015.txt.gz
Helicity
50 56 72 79 111 120 114 75 77 70 66 55 41 33 35 29 31 30 22 16 19 20 36 26 7 -12 4 38 34 36 65 69 36 3 -25 28 66 60 141 77 54 -14 44 -4 -15 63 -6
32 34 42 57 75 105 111 104 80 73 69 58 51 38 37 30 29 33 28 23 27 29 38 25 1 -21 22 30 29 54 52 39 24 -11 1 136 76 3 35 45 26 10 22 -21 -1 59 31
41 33 34 39 50 70 95 96 86 80 75 66 51 37 41 37 30 34 31 24 25 29 33 20 0 -1 -2 -2 14 6 42 33 32 17 19 108 65 -19 -8 17 101 25 31 15 35 71 81
56 48 42 42 41 48 76 78 82 77 78 73 57 42 37 33 29 30 30 24 24 34 32 19 -6 -5 14 -4 -3 -4 87 79 91 105 67 91 31 -18 10 51 61 36 60 36 61 42 -32
79 59 64 56 53 52 49 63 52 62 79 81 58 44 37 29 30 34 35 23 22 30 31 15 10 6 15 52 -29 2 49 100 181 111 61 66 -22 40 53 34 8 4 21 48 69 16 10
84 84 73 74 69 60 55 55 47 43 53 74 66 44 33 32 35 38 32 23 28 36 30 8 -3 1 -24 -8 -33 13 57 36 33 60 3 3 47 54 71 90 97 53 57 -13 32 35 -11
96 100 104 81 78 89 64 53 67 41 43 50 70 48 32 30 38 37 37 45 78 92 66 51 50 12 78 -11 15 3 51 25 27 24 36 44 49 121 174 98 84 93 -10 34 31 32 18
109 99 103 107 85 71 95 77 70 68 46 52 62 55 37 31 41 28 39 46 93 69 1 76 42 -15 31 42 14 -64 -32 32 41 20 0 21 40 107 34 50 50 54 47 -5 1 -4 -11
107 118 118 124 116 84 76 104 99 96 75 69 64 68 47 38 45 57 52 69 35 75 38 3 22 -27 -32 5 -12 -36 -41 13 12 15 2 -5 1 23 11 74 27 -5 42 46 102 13 0
101 121 132 105 107 100 80 99 110 106 101 94 88 83 57 78 65 63 85 129 51 46 67 26 66 -20 -40 -10 11 -69 -36 22 8 5 -21 -19 -4 29 9 66 0 38 13 55 43 54 14
51 104 128 160 139 128 102 87 128 129 113 102 108 103 84 81 96 102 131 226 60 41 113 15 74 -6 28 10 -1 -81 -24 88 80 40 42 51 13 21 64 69 37 -5 -6 34 51 21 141
138 91 93 124 160 154 152 113 130 148 143 121 140 124 97 90 38 29 130 210 79 147 102 59 73 52 16 6 -47 -47 105 68 60 30 25 85 2 37 -58 10 20 -5 15 3 11 30 82
178 125 78 122 181 163 146 159 124 161 163 148 148 165 150 86 73 203 93 82 190 224 25 83 152 113 34 23 -16 -31 69 54 58 82 63 52 25 5 -32 -29 38 25 29 62 75 93 25
180 121 107 97 184 264 137 135 138 160 175 173 187 185 119 88 99 154 177 193 216 108 16 51 114 86 56 -33 21 -51 21 -6 7 77 43 76 24 40 20 -14 44 32 2 37 49 36 -53
84 131 151 111 54 214 218 151 156 171 186 208 225 236 182 63 83 141 236 227 249 137 -9 37 61 105 27 -35 30 1 30 27 -30 87 71 93 32 21 133 141 53 39 47 20 104 39 45
28 77 96 139 95 190 235 146 155 194 203 250 363 323 162 73 146 156 235 251 220 -37 62 -29 7 73 30 1 -66 62 45 11 -11 50 140 71 77 93 115 138 50 41 21 85 98 18 1
32 18 23 63 119 183 259 168 137 201 226 241 384 304 84 117 234 188 167 246 81 -91 35 66 -19 41 -6 -5 65 -24 45 28 44 86 175 126 71 44 121 -66 20 41 57 64 66 75 39
74 31 25 52 68 114 216 189 116 179 245 286 422 284 117 228 319 201 129 228 54 16 -36 81 51 -32 0 -22 -21 46 -35 86 286 122 149 49 69 59 -4 31 2 43 32 57 102 63 83
84 40 14 58 37 52 112 106 112 151 223 394 435 400 166 187 238 154 165 120 12 15 138 118 27 24 -17 19 73 39 78 89 110 142 127 134 155 153 104 93 82 16 54 40 66 130 83
114 24 38 40 34 -2 67 60 94 71 172 344 504 390 234 222 197 122 156 81 -4 -67 110 122 57 54 49 50 75 9 120 102 156 103 135 114 108 97 83 34 28 17 38 28 82 126 64
119 42 21 -30 -93 80 61 42 95 49 111 243 519 385 355 257 169 214 119 83 -23 10 34 11 43 3 54 61 85 57 155 137 104 115 123 113 96 106 56 47 47 40 48 24 23 26 101
59 51 -8 -71 63 72 84 30 138 82 99 155 451 366 346 268 236 282 138 36 0 27 143 99 58 -38 78 57 102 96 134 116 114 129 125 131 130 131 75 71 62 84 80 55 54 41 52
10 19 -28 -35 9 54 87 49 150 93 118 34 309 467 262 227 181 278 124 78 49 37 128 53 62 51 74 78 77 100 134 192 136 104 138 132 149 149 93 113 92 45 17 28 30 34 36
24 36 32 35 48 70 67 76 128 98 124 166 300 423 234 250 174 159 178 152 46 56 133 57 86 91 113 188 307 330 318 234 231 127 69 159 127 115 89 109 81 11 46 59 45 94 119
15 21 50 52 58 63 84 110 104 79 137 116 120 225 182 208 121 117 172 115 33 3 79 56 122 77 155 253 225 183 212 155 38 43 119 106 130 121 96 85 52 51 86 67 68 120 126
18 26 33 9 -8 45 80 102 101 87 86 96 146 301 159 125 106 114 149 67 68 85 126 256 286 228 274 166 225 142 86 76 100 147 236 201 155 129 121 94 46 37 62 95 101 146 153
6 -1 -29 -34 26 71 60 72 66 54 68 85 -87 142 292 98 116 136 161 30 54 85 186 357 267 307 258 213 172 115 83 53 77 60 54 127 139 99 109 79 61 54 84 82 121 95 174
0 -27 15 53 51 68 82 86 73 -24 72 55 -43 216 314 167 76 159 144 64 62 182 289 206 165 318 308 217 141 116 81 82 77 41 36 47 67 61 110 83 33 86 126 105 94 178 145
35 42 23 29 64 72 98 110 60 70 38 -90 45 127 197 35 118 127 97 162 89 153 296 274 119 211 212 203 151 132 110 130 107 66 47 62 44 41 62 40 31 84 121 96 133 134 125

GFSGBSN_con_3kmhel_021.txt.gz
Helicity
50 48 57 70 73 69 81 92 95 101 76 66 60 61 57 54 57 54 51 43 40 23 22 19 18 18 20 42 19 6 27 73 52 16 -5 4 40 50 74 84 63 99 125 31 68 19 11
62 54 49 44 46 48 50 61 75 79 79 62 62 57 55 54 53 56 52 43 40 21 19 23 25 23 33 52 -0 11 51 57 37 20 -10 -4 25 30 108 97 41 126 93 40 1 15 1
57 63 56 47 37 41 39 41 51 59 57 52 56 64 58 53 53 64 61 48 38 19 17 28 29 25 28 31 1 -17 17 18 20 -2 -21 -18 -14 69 83 120 56 86 68 9 21 -3 17
71 57 56 59 48 36 45 42 32 47 45 35 38 50 55 56 61 60 63 58 44 24 15 29 42 35 23 9 -44 -60 -1 -50 13 4 -41 39 22 40 54 59 101 55 54 64 -28 -26 -1
110 96 68 53 54 49 43 48 55 41 37 29 27 35 52 53 53 59 65 67 50 26 17 31 57 48 17 -45 -54 -35 89 14 1 10 -22 30 19 17 46 60 52 101 19 -0 -4 -37 9
97 113 115 96 72 56 48 47 59 61 65 73 52 31 38 40 46 55 66 78 38 40 48 48 63 54 -1 22 -37 -96 -19 79 -0 -10 -22 13 35 34 55 64 84 75 53 38 5 -15 42
77 98 97 107 103 92 72 46 45 70 81 83 28 22 46 40 36 53 58 47 49 45 51 49 65 46 63 48 -74 -70 -33 26 -3 -13 -1 10 63 39 65 69 61 123 76 3 2 -11 18
157 81 101 103 104 111 111 101 66 60 74 81 72 31 42 49 31 39 49 60 42 45 33 24 23 -2 -48 21 -16 -76 -16 -24 -18 -15 -16 10 65 73 79 51 62 56 67 44 49 5 -0
158 191 94 89 100 106 104 105 124 91 80 75 49 72 65 66 44 42 53 61 49 35 33 13 71 40 -5 45 3 -36 -30 -33 -15 10 24 24 25 18 43 49 30 63 46 93 112 45 69
166 152 180 109 72 106 108 109 100 112 99 96 77 66 72 69 47 47 52 54 75 18 22 35 63 43 80 43 -8 -41 -42 -33 -48 14 20 41 52 35 32 36 57 29 14 41 65 33 53
87 162 139 186 102 74 123 127 119 113 101 119 115 97 85 92 93 96 87 157 46 44 16 43 74 72 109 99 30 -27 8 -11 -56 -22 43 10 5 28 23 31 21 75 77 52 32 29 61
79 77 147 160 167 105 105 118 133 145 143 129 152 129 120 115 76 71 125 143 90 117 52 80 67 95 173 46 41 31 36 11 -19 2 36 8 19 18 -25 21 38 24 29 94 77 51 60
98 67 38 141 193 140 107 112 144 148 163 150 166 154 179 133 58 96 84 153 133 102 103 84 72 89 87 109 -44 39 82 38 5 -5 -2 42 47 29 43 32 32 29 58 44 66 91 24
156 106 66 32 122 188 125 136 149 149 149 152 183 206 169 130 98 152 116 165 112 19 70 80 67 102 74 127 -6 18 40 24 -11 32 -3 2 -5 47 50 9 3 4 12 38 32 46 64
160 152 110 63 -4 100 142 139 139 178 186 165 210 251 219 142 115 159 177 133 22 149 62 114 102 131 61 55 60 48 58 50 -6 69 -29 4 41 55 44 20 18 41 53 26 67 75 89
194 168 138 98 58 9 64 137 142 134 211 233 285 302 247 159 166 203 191 118 151 96 138 174 107 100 85 63 79 110 102 45 -1 43 109 9 50 67 85 75 57 49 54 74 79 92 67
159 232 159 127 77 -20 50 144 154 52 208 261 328 413 228 229 247 257 199 183 173 65 95 182 188 124 43 74 49 82 46 -46 -6 28 97 120 79 83 58 58 52 107 130 168 115 125 90
162 241 201 132 96 15 100 199 145 89 171 287 431 441 213 306 358 276 164 265 225 38 42 107 154 158 88 40 39 7 -42 -21 40 98 74 80 75 60 47 36 32 92 113 172 129 125 119
165 248 237 157 132 109 166 265 150 76 132 406 489 487 168 293 373 233 213 155 148 95 29 22 128 159 126 28 53 -6 28 38 73 72 101 116 123 146 149 90 109 84 98 128 104 133 120
166 271 270 201 152 160 142 107 129 96 95 346 568 554 365 302 266 249 203 190 136 55 91 139 106 156 147 129 75 33 49 110 98 49 89 206 149 110 80 58 109 111 56 64 124 132 87
111 286 315 206 161 162 125 113 131 102 38 261 605 475 626 392 148 265 200 152 145 110 58 100 34 104 210 202 132 72 158 171 134 121 143 163 202 133 86 94 109 89 80 114 98 101 122
79 340 344 225 171 149 157 183 144 92 44 220 556 554 484 369 307 272 279 121 57 94 132 99 51 20 126 145 144 78 128 145 120 149 156 180 128 156 129 162 166 111 97 99 127 95 93
52 379 349 256 181 149 136 156 174 77 90 219 341 434 398 375 213 276 141 214 97 77 72 127 53 31 135 148 138 96 125 148 165 190 167 185 187 182 127 186 193 164 125 104 93 119 113
123 412 343 226 184 176 144 78 65 99 125 233 285 485 453 287 296 181 145 242 115 68 113 53 107 93 56 20 90 147 227 291 235 266 160 221 234 225 157 201 89 105 143 110 108 152 167
418 322 282 200 138 157 134 96 -43 125 98 201 211 270 410 252 169 179 145 125 116 59 52 83 110 84 61 142 210 276 282 254 223 285 213 191 227 207 196 188 171 115 101 110 128 136 170
303 290 194 131 139 133 96 45 56 95 -3 8 218 23 271 370 117 195 113 69 133 99 44 73 40 -9 138 201 189 237 305 238 249 296 240 246 231 215 245 194 158 80 112 164 158 157 93
379 219 144 133 147 145 123 101 85 -7 -159 -51 89 35 91 300 274 103 166 98 77 133 81 69 60 47 143 192 219 196 299 223 228 205 211 263 261 233 280 194 181 100 104 149 192 83 166
132 110 98 106 116 115 115 91 81 -75 -53 56 115 110 110 197 255 205 188 141 122 133 97 42 138 120 213 218 153 175 270 247 259 207 203 212 241 226 278 262 153 128 196 165 74 176 162
69 76 90 99 81 72 76 78 20 -101 60 110 65 103 133 130 203 155 158 155 105 100 159 98 149 114 166 204 183 180 255 306 263 216 223 190 183 165 129 106 123 59 105 101 66 96 102

GFSGBSN_con_3kmhel_024.txt.gz
Helicity
68 69 72 68 76 86 84 78 85 88 88 89 63 54 52 47 43 44 47 56 53 47 35 30 20 19 31 40 30 -9 40 66 33 12 6 -5 11 8 22 21 23 64 68 44 41 20 12
73 63 62 69 58 62 54 68 77 87 82 82 68 53 62 51 48 49 50 53 53 38 30 29 24 15 37 45 22 -2 47 47 23 5 -0 -3 21 -5 24 30 23 44 60 29 17 4 -13
88 85 64 58 52 54 55 49 55 65 71 68 65 62 61 61 49 49 47 51 51 33 24 27 28 21 38 35 30 -17 15 11 23 30 -7 -17 -2 -24 62 40 46 95 17 -1 19 -13 -1
119 97 94 82 61 54 45 44 48 50 56 49 47 43 50 54 57 53 60 60 52 36 25 32 38 27 26 12 -27 -75 -10 -14 19 17 -25 -27 -4 11 26 49 79 63 53 40 6 -18 11
114 121 113 97 93 81 68 51 42 40 40 42 30 22 21 35 53 55 71 66 57 33 25 46 54 50 22 -4 -21 -59 19 -7 24 31 -9 -32 17 5 31 38 57 73 49 51 16 -33 3
166 165 100 124 115 90 97 78 64 52 53 57 45 40 45 40 43 50 81 79 42 34 41 51 76 64 20 56 66 -46 -33 -5 7 20 -3 10 7 14 59 47 29 45 47 19 6 -30 11
140 179 205 95 109 134 75 76 88 83 70 62 59 53 48 48 60 79 82 68 78 57 58 50 59 46 46 80 8 -35 -28 21 -9 4 1 -13 -11 -40 2 35 57 68 57 14 -3 -14 76
138 172 179 196 114 89 133 103 76 90 104 94 89 91 84 60 57 73 88 107 62 42 37 42 45 9 -11 42 51 3 -1 17 7 19 -6 -20 -5 -14 43 40 28 46 38 49 -8 24 30
82 140 162 162 176 114 93 128 125 99 113 115 108 99 100 105 72 57 74 80 61 48 23 -18 51 52 46 79 23 -1 26 4 23 23 5 -4 -26 44 32 40 32 53 67 29 24 15 64
79 70 93 151 172 159 119 90 112 144 118 110 116 109 100 86 73 69 45 67 49 32 76 49 47 40 119 125 41 1 7 23 34 5 14 -13 -35 -2 83 55 22 82 -6 -9 38 42 17
90 85 66 42 108 173 166 101 105 118 130 116 123 124 132 95 111 92 76 62 54 50 148 88 92 83 140 200 79 11 41 56 65 23 23 -6 58 56 23 44 55 -15 -9 10 38 53 77
119 121 119 89 53 86 159 167 113 121 126 128 120 144 154 132 93 60 112 95 63 165 149 111 63 121 214 154 98 132 98 65 5 11 17 -11 35 21 15 59 53 62 33 82 69 69 62
128 126 136 142 91 69 68 150 146 127 133 133 159 182 192 146 101 77 51 171 181 196 123 66 56 91 123 151 68 125 132 107 111 148 36 23 24 24 12 19 35 66 107 75 67 83 20
107 133 133 137 147 77 53 78 158 109 134 153 163 204 214 175 125 145 129 214 189 105 152 48 114 100 84 115 6 116 172 144 71 103 55 22 -28 14 16 43 23 45 49 70 26 40 45
74 111 128 142 136 125 51 1 96 93 77 176 178 231 259 173 156 170 212 187 177 175 141 -17 52 131 125 83 90 101 51 107 97 106 56 18 -20 44 45 62 48 36 67 39 89 76 71
76 100 119 152 163 134 96 32 12 66 89 131 240 267 231 198 195 231 243 152 188 184 136 89 63 81 86 82 124 113 131 110 70 53 45 8 -2 48 84 74 51 57 45 87 93 72 52
78 94 95 144 225 156 120 89 -54 63 137 80 261 345 187 253 270 307 207 191 154 127 128 65 145 158 86 103 89 116 117 119 79 71 62 91 25 5 86 61 68 92 97 110 99 109 71
73 100 101 149 224 200 149 107 -23 74 139 128 308 362 153 363 356 320 192 264 175 61 104 87 100 126 97 72 129 129 90 72 52 131 89 58 15 -38 14 76 79 67 61 107 129 121 152
65 85 100 117 226 236 172 122 79 102 156 240 395 406 125 316 385 272 266 173 222 75 65 37 73 97 132 89 103 93 43 36 25 47 46 79 39 -52 4 52 74 29 68 157 184 196 139
92 87 91 94 243 278 180 142 81 115 206 249 409 502 394 261 272 275 286 207 123 112 90 118 80 53 121 120 92 38 40 14 29 46 58 161 121 77 24 72 91 80 123 131 141 136 93
102 91 76 80 245 316 182 137 64 150 237 298 297 491 568 450 203 281 223 266 143 119 76 115 90 52 77 120 120 71 71 108 85 74 89 115 49 108 110 81 102 88 98 110 121 111 107
89 90 75 76 205 305 184 137 142 228 138 328 350 457 424 422 266 336 287 190 109 116 124 125 105 41 43 117 140 160 86 114 124 119 144 161 83 109 185 194 138 131 94 96 101 122 111
94 76 85 75 292 317 185 117 176 160 229 374 338 370 445 338 222 292 251 302 203 107 111 59 52 95 106 41 79 175 143 46 69 126 171 168 154 126 83 153 163 84 120 141 153 194 183
90 67 100 53 326 359 194 248 267 237 194 333 287 539 406 291 277 191 208 305 244 147 160 85 107 78 58 -2 16 -5 92 138 164 188 193 258 258 179 106 199 61 117 154 156 163 145 160
77 67 67 39 311 312 185 221 186 31 72 290 323 430 377 222 181 214 192 145 289 167 96 101 84 94 60 147 57 112 141 179 230 257 234 206 235 195 154 141 155 150 188 182 146 83 107
60 81 36 182 314 250 218 208 189 48 31 236 227 255 219 274 93 197 137 152 165 152 116 47 80 38 103 139 102 148 180 184 243 281 204 203 192 179 213 169 142 118 138 212 219 128 132
75 22 67 360 365 196 191 195 149 103 55 274 184 131 -59 190 254 143 178 169 168 160 126 86 102 64 89 213 139 141 179 151 234 257 239 266 244 193 259 195 172 126 154 206 238 119 210
7 101 388 432 212 138 134 121 116 116 108 177 133 96 55 -8 141 191 199 209 217 125 150 89 110 137 166 197 214 181 189 195 230 240 293 279 267 236 270 233 173 210 315 245 135 108 167
249 450 327 263 157 135 132 105 91 42 5 158 114 79 131 100 134 73 151 210 197 183 162 127 120 133 169 221 260 188 232 284 279 257 300 247 221 197 207 173 189 156 172 113 113 109 100

GFSGBSN_con_3kmhel_030.txt.gz
Helicity
80 72 72 68 69 74 79 83 71 74 73 93 94 88 83 88 89 71 66 69 69 68 62 60 45 54 15 27 37 48 42 32 35 4 17 15 12 -14 -20 -31 -23 46 35 22 13 -8 -18
113 111 74 67 74 68 65 69 82 70 72 73 82 90 89 83 85 91 69 68 70 75 69 66 49 32 9 47 51 24 40 30 17 15 15 -6 -12 -25 -31 -40 -21 24 45 29 -7 11 1
101 117 129 117 61 77 77 76 71 62 72 71 70 80 83 97 96 88 78 74 74 66 56 57 59 20 30 28 46 23 27 10 -7 -10 9 -19 -22 -15 -45 -36 7 51 29 -17 25 -2 -23
100 106 118 136 155 102 76 77 68 71 64 79 70 68 75 83 95 84 79 67 65 63 45 41 50 31 40 54 46 29 18 12 1 -15 -12 -30 -28 -39 -48 -4 -21 -45 -15 4 22 -6 -11
90 94 99 114 135 138 146 88 97 83 65 73 80 72 77 76 78 63 53 54 57 26 24 43 25 57 50 69 54 5 6 30 20 5 -6 -14 -29 -45 -58 -65 -8 -8 10 24 35 -19 -2
54 67 78 87 101 130 157 168 91 101 98 72 83 88 84 79 84 56 35 29 43 1 22 43 69 68 74 60 86 66 4 27 39 25 18 2 -23 -10 -20 -45 -21 11 -3 2 3 24 3
36 45 49 65 71 83 101 132 185 92 104 97 78 91 90 91 95 70 43 26 15 31 30 64 109 107 143 83 86 79 53 46 24 14 9 15 -6 15 -1 -16 13 4 10 18 29 25 13
53 52 41 48 58 65 60 82 125 213 98 112 100 94 90 118 114 91 60 51 78 93 76 41 27 28 34 99 127 102 59 92 50 11 18 5 15 -18 3 -7 -12 -13 -3 24 31 27 22
67 65 64 54 54 54 64 71 81 102 202 110 130 105 110 122 142 100 68 45 62 40 5 6 65 85 88 88 75 106 91 85 31 12 12 -14 43 3 1 -10 -13 -10 -1 43 42 18 8
63 70 68 70 78 73 65 69 63 66 123 160 105 128 129 141 137 90 83 73 55 4 26 8 51 97 136 111 77 69 64 96 77 11 7 -18 9 -5 -8 -29 -33 -5 8 42 25 5 3
58 57 59 77 79 88 91 85 82 60 44 150 101 112 129 126 292 142 127 112 73 45 94 75 95 116 117 158 117 93 65 129 67 79 78 28 38 20 2 -20 -19 16 47 47 25 33 22
75 82 83 75 80 95 104 103 108 89 54 33 203 44 122 188 223 200 165 165 127 155 132 99 77 88 123 123 132 161 185 116 47 63 24 -3 68 38 -7 13 -33 30 60 46 14 36 17
101 93 101 97 88 99 104 94 99 120 69 52 68 138 80 139 237 192 191 213 221 230 151 86 94 78 71 133 148 98 182 153 144 135 101 28 28 55 38 19 7 -1 25 14 17 46 18
120 122 118 117 113 104 113 117 107 109 102 76 19 136 100 134 161 309 215 281 283 132 162 109 160 69 100 120 109 147 113 106 29 48 74 41 81 49 56 -4 2 37 21 60 57 38 43
117 114 127 129 124 124 123 131 116 124 116 95 77 151 120 126 135 233 235 359 280 144 109 233 112 146 126 104 165 143 131 87 108 73 99 64 15 95 54 36 8 53 33 85 73 84 51
107 104 125 140 144 126 131 136 159 134 128 112 131 127 170 106 170 310 327 239 202 239 173 111 126 96 97 107 158 138 143 45 50 59 55 97 55 76 75 51 28 12 79 90 92 72 52
119 124 112 107 140 146 139 137 137 154 138 124 193 234 152 116 197 463 422 187 83 154 229 229 139 103 116 129 115 136 147 133 71 88 54 77 75 97 76 36 26 59 53 95 86 96 75
104 113 113 90 56 151 168 162 149 173 165 168 309 301 157 226 288 479 456 98 129 93 197 277 271 123 103 97 101 109 64 61 33 88 98 66 105 72 53 72 37 -29 -3 48 80 68 104
119 137 131 122 67 190 192 167 173 210 216 302 405 393 78 232 311 380 311 149 177 157 136 191 154 96 113 86 117 91 76 72 114 59 57 161 119 69 51 46 25 20 11 36 98 129 73
89 115 125 109 94 100 121 137 186 264 253 333 521 493 364 152 164 174 255 208 123 187 159 89 165 125 105 101 160 141 93 88 88 51 126 121 87 63 66 40 43 20 9 26 45 34 50
66 64 52 67 58 71 100 85 209 328 275 352 455 517 594 436 212 99 150 213 161 103 154 111 112 80 100 111 170 171 96 93 54 105 89 84 53 53 33 8 -1 -5 -16 10 20 19 -8
45 76 84 83 80 78 94 106 185 354 276 399 517 462 331 258 189 125 172 147 104 76 133 142 99 78 84 95 180 155 171 186 126 77 66 103 75 48 23 14 14 -4 -20 -46 -43 -34 -73
54 71 91 89 88 77 75 96 175 365 324 460 382 342 250 257 132 173 210 155 157 96 67 98 69 108 66 83 118 132 215 258 253 93 72 107 93 57 -2 46 56 79 -12 3 7 -8 11
68 77 106 96 87 74 88 92 70 397 327 423 314 351 273 192 181 176 98 170 99 164 134 150 114 65 50 186 95 75 48 249 137 167 100 103 105 113 64 114 54 47 89 6 4 -8 6
68 15 13 148 71 83 89 107 47 412 201 357 351 423 229 177 93 100 119 154 100 122 163 172 155 70 85 79 34 35 32 82 84 107 88 95 92 118 130 79 58 78 90 107 91 4 33
15 28 30 87 73 79 88 112 44 362 195 378 231 465 258 136 103 125 84 137 156 151 149 127 140 187 153 108 92 -1 13 72 138 84 131 120 138 126 150 112 40 32 58 78 80 -20 17
3 34 66 28 42 98 67 64 245 223 128 392 292 306 315 140 150 124 96 56 52 143 160 207 205 184 108 122 74 73 4 103 99 151 125 159 163 141 127 133 96 107 135 138 66 31 78
25 16 2 44 50 80 48 61 201 186 134 373 254 297 266 235 206 170 193 45 63 108 143 211 247 159 110 120 124 38 77 105 61 46 156 112 156 176 167 155 72 166 196 130 102 71 71
6 7 54 60 81 83 82 99 406 178 176 278 275 300 298 289 179 86 114 231 168 1 106 150 231 128 120 119 116 117 75 110 91 66 123 67 171 150 114 132 137 129 83 59 87 97 100

GFSGBSN_con_3kmhel_033.txt.gz
Helicity
103 121 132 111 70 64 61 59 65 69 68 58 60 64 73 84 76 62 61 45 48 48 41 42 52 71 69 46 36 97 63 53 32 15 14 4 -18 -2 -13 -15 -9 -4 2 -1 -2 9 21
86 93 105 122 137 89 64 66 74 69 66 68 65 58 52 62 67 64 62 54 55 49 46 43 45 56 22 33 90 71 42 41 17 13 8 -25 -38 -49 -53 -33 -32 38 -4 11 -12 30 53
77 76 87 103 104 126 127 84 76 75 69 63 66 64 54 56 59 52 52 56 57 57 46 49 48 28 25 23 58 60 36 21 13 10 1 -26 -56 -64 -43 0 -20 -2 22 36 27 46 30
83 76 68 68 82 112 115 132 96 81 80 72 70 82 65 57 53 49 39 43 50 47 47 39 34 16 41 62 26 52 37 28 11 2 7 -34 -45 -60 -50 -20 13 11 20 32 71 28 28
72 72 79 83 84 83 92 111 108 116 96 93 82 81 77 59 64 55 38 26 34 39 35 35 18 50 39 120 49 40 24 33 38 31 6 -21 -36 -36 -32 -5 29 30 -8 98 35 10 23
49 50 61 67 75 84 88 86 92 102 122 101 101 93 90 73 79 70 51 22 28 52 10 24 46 70 54 40 54 64 24 31 57 44 19 2 -5 -12 22 -8 -12 -20 42 24 72 34 -14
29 29 34 47 63 65 67 76 91 101 100 120 93 95 105 106 102 98 90 51 10 -5 -7 59 79 36 65 71 97 55 73 53 43 41 35 35 11 22 7 24 -26 27 21 -28 53 -35 7
46 38 31 33 37 48 51 64 76 84 103 94 115 99 102 108 128 139 93 71 107 94 28 3 0 -3 32 121 83 56 88 95 67 36 19 20 20 -19 -1 -41 -16 -18 -19 -26 34 41 9
54 57 50 45 49 50 58 58 75 82 90 70 114 82 109 102 149 127 70 50 93 63 18 3 20 10 43 80 73 85 113 71 63 15 20 3 1 39 5 13 -1 -16 -20 48 4 9 -2
58 62 70 62 57 63 68 77 62 75 81 96 50 114 56 118 130 108 79 58 44 27 35 49 27 82 82 122 99 6 81 51 24 10 -2 6 0 35 17 -13 3 1 -17 16 24 27 24
45 50 57 62 64 75 79 80 99 69 81 78 73 84 110 31 349 273 216 111 63 36 174 92 138 174 123 174 135 82 64 10 14 18 5 32 -1 39 -12 -14 11 -40 -12 28 8 21 22
53 52 53 53 58 65 67 86 104 119 91 83 82 23 110 124 138 160 382 184 87 191 266 91 121 54 98 55 77 65 99 4 -9 10 -5 -21 14 20 -6 -11 -15 -18 12 12 -10 -7 16
55 55 59 65 63 65 72 88 103 94 106 112 87 54 123 83 162 141 193 258 290 364 163 156 115 65 34 71 67 102 102 100 66 64 62 -23 46 1 -32 -2 17 -5 -2 1 -8 6 16
47 60 71 80 88 89 81 87 100 103 95 104 90 96 87 104 100 167 258 355 378 262 209 137 73 91 66 69 43 134 86 98 39 47 58 68 51 17 54 -25 22 52 -18 -21 -29 -28 19
43 59 92 101 113 113 104 106 112 119 108 110 101 105 75 125 69 129 306 326 290 224 85 136 109 88 131 62 80 87 58 85 64 37 10 42 0 69 43 16 -33 -18 32 -22 -46 34 39
10 23 103 109 129 141 144 126 124 137 120 98 146 151 129 95 42 138 353 386 136 115 88 58 87 114 89 91 110 82 74 61 33 28 -14 -26 22 45 81 21 6 -38 25 -7 -17 -16 14
35 79 123 134 197 163 160 150 138 136 112 133 143 239 121 97 74 202 402 398 243 97 52 40 84 52 98 58 46 83 102 86 41 39 -40 -86 44 63 131 68 24 62 1 -7 -6 -21 5
89 114 156 164 129 126 132 138 135 149 147 196 274 293 155 204 248 299 337 356 93 162 29 81 68 80 32 20 75 67 55 43 75 0 62 -33 40 47 79 36 -2 -3 18 40 22 7 12
106 181 182 138 111 100 76 107 126 182 205 284 426 422 135 260 402 436 175 180 73 122 159 173 120 24 87 56 61 71 41 50 84 72 48 27 38 104 38 53 61 7 23 -16 -30 -46 42
114 116 100 99 130 111 84 93 105 223 233 311 464 548 409 191 220 229 186 135 161 110 72 138 97 80 88 81 103 110 74 79 103 92 28 64 70 67 73 53 60 47 -3 -5 18 30 16
94 97 98 105 118 108 98 104 87 187 285 415 517 559 649 491 291 197 209 183 142 131 88 79 90 110 95 44 52 43 67 78 108 74 55 27 45 61 36 14 7 25 46 22 2 12 14
67 72 86 93 87 97 110 123 128 133 392 518 645 648 446 246 241 160 146 144 120 139 136 113 97 75 26 172 85 115 111 204 62 94 120 89 79 34 31 22 20 12 11 16 0 23 -1
69 78 62 65 73 75 83 79 89 98 435 627 587 463 305 275 110 177 176 111 82 109 80 76 81 108 110 21 16 33 235 434 303 291 96 90 110 97 74 34 30 10 24 1 4 -38 -8
91 79 43 39 77 72 79 84 90 76 268 576 522 425 332 237 248 125 101 71 33 37 125 78 47 79 137 117 64 40 128 327 358 405 273 148 134 113 123 131 112 41 17 12 7 -30 -20
59 68 67 49 64 72 86 96 94 77 96 561 454 349 343 292 124 98 41 59 46 36 95 105 76 79 67 71 49 1 -109 -49 163 313 297 122 127 174 117 96 75 28 28 42 12 5 -3
40 77 66 58 62 79 85 98 92 113 61 603 469 324 317 191 107 70 75 54 92 54 155 107 50 169 123 152 109 20 -28 -18 -54 87 186 169 146 153 110 72 30 27 24 33 4 12 15
13 28 40 11 65 86 104 99 90 127 125 441 370 242 326 209 170 139 91 80 45 100 168 115 193 203 154 144 116 18 32 23 -49 118 96 193 193 129 117 100 57 42 3 62 40 -36 28
0 -22 4 36 50 88 69 86 78 80 150 456 275 284 259 160 149 143 91 68 64 129 204 132 130 135 177 137 106 102 74 83 22 -9 43 217 194 154 116 77 39 79 132 84 40 1 55
9 26 39 37 62 79 90 91 123 28 376 383 248 306 322 219 153 178 124 136 111 63 103 153 212 150 146 107 94 146 116 102 52 69 42 23 167 121 118 94 86 72 46 34 -14 31 60

GFSGBSN_con_3kmhel_036.txt.gz
Helicity
90 85 78 81 90 101 103 73 68 73 69 65 68 63 51 59 65 62 56 49 45 45 35 43 49 69 36 40 33 103 74 68 43 29 8 4 -8 2 -5 -26 -8 16 25 -11 -4 -48 8
65 70 75 95 86 68 82 109 89 73 71 71 65 67 60 47 49 52 53 48 44 42 33 40 54 67 23 22 25 93 39 66 24 23 9 -15 -28 -42 -60 -22 -45 -4 -18 -4 15 -10 36
62 63 62 70 75 86 102 76 80 87 76 68 72 72 68 61 54 48 46 45 36 33 31 41 50 45 17 41 43 96 45 28 8 18 4 -11 -32 -49 -72 -48 12 -23 -5 38 23 24 65
72 72 66 70 72 73 83 92 78 71 84 81 71 79 69 76 74 58 52 44 30 13 24 33 51 45 6 -4 31 17 40 18 2 1 -18 -33 -18 -45 -24 -37 -22 2 36 71 78 -2 123
70 66 63 71 66 70 76 78 85 85 73 86 82 64 78 73 87 85 68 57 32 5 11 25 36 34 12 55 50 13 17 33 22 7 -1 -8 -20 -29 -31 -1 22 53 49 27 65 -4 159
49 47 52 56 58 63 55 60 68 77 82 75 98 99 65 71 80 106 92 106 17 43 11 11 47 55 57 21 25 33 14 12 38 22 23 9 4 -3 5 -17 -6 4 -43 2 57 17 52
28 23 25 37 43 46 37 45 49 60 66 84 67 103 101 76 83 104 128 91 13 6 8 47 70 72 147 -5 71 23 37 41 25 34 47 16 16 11 16 23 14 -39 -9 23 85 37 -7
36 28 26 30 39 38 34 39 50 63 69 64 72 69 116 89 90 109 130 109 159 114 48 23 47 19 -32 61 61 13 57 79 62 63 33 -4 39 -18 1 -16 -19 0 -40 -1 80 54 13
45 44 37 33 34 42 46 44 50 66 71 78 82 84 101 105 109 84 89 36 136 120 51 -14 20 40 4 20 9 27 70 68 87 45 33 21 -10 51 52 -11 -2 -14 -21 -9 -61 29 6
50 56 66 58 50 51 54 54 55 62 68 79 79 73 88 131 90 60 80 94 52 58 63 68 45 64 13 49 34 -12 57 57 49 43 7 -5 -10 -17 24 -13 -2 -10 19 -7 -5 -29 5
48 60 74 74 61 56 62 65 61 50 73 72 83 78 75 79 250 244 212 255 104 87 158 45 7 157 109 152 172 52 -12 90 63 28 46 7 -49 -32 16 0 -8 -13 4 -70 -2 -19 -27
39 39 44 51 58 61 61 70 79 70 53 79 86 98 93 102 74 88 261 214 158 228 213 160 160 154 115 56 52 90 51 50 16 4 0 -12 -11 -7 40 -30 -40 5 59 7 -7 -29 -65
32 24 26 31 39 48 56 69 77 80 74 58 64 97 107 87 55 98 159 242 262 383 169 205 134 128 54 54 36 22 95 89 130 100 42 14 -41 9 19 -12 -27 6 5 3 20 0 -25
23 20 21 27 35 43 49 60 76 86 83 73 48 89 85 99 30 124 113 289 404 265 236 32 15 59 74 36 38 32 85 99 95 50 80 77 49 -69 28 -10 -17 76 -17 16 -46 -46 -59
27 25 28 23 31 49 59 66 76 89 93 90 60 103 100 113 12 75 163 331 355 194 111 113 26 145 37 35 59 59 67 143 121 -10 94 66 37 7 30 19 -61 19 53 -16 -75 81 19
-2 -2 7 20 24 41 59 74 92 113 117 100 141 139 109 104 46 71 216 231 171 141 144 35 138 44 109 51 63 82 40 86 75 40 -47 10 77 -8 46 40 44 -69 -6 17 11 -57 -24
-8 -5 1 1 -2 31 51 88 106 135 141 99 165 216 151 103 84 152 241 201 107 85 173 100 117 200 101 58 49 54 61 46 58 41 17 15 58 55 -21 56 23 34 2 26 -4 -24 35
1 -4 -9 -13 7 23 60 101 96 164 140 136 283 293 186 202 276 357 212 209 38 76 94 118 123 98 121 83 6 49 41 50 43 45 50 -1 60 108 97 82 40 48 42 30 1 -40 18
-10 -15 -37 34 14 65 83 84 61 101 160 262 401 448 140 263 374 327 203 37 -18 23 52 120 119 105 47 40 -56 -1 87 38 27 66 41 94 78 171 116 34 17 44 -5 57 -29 10 24
26 42 30 38 105 123 112 102 74 66 157 247 426 552 525 244 220 225 262 111 26 -31 44 60 152 83 104 94 65 -3 46 27 75 111 100 97 171 160 180 73 70 82 5 54 41 10 13
62 84 100 110 104 96 83 54 35 49 151 299 440 551 699 611 421 250 243 191 50 35 64 33 115 124 78 118 -61 137 94 143 78 231 102 123 169 154 71 27 26 59 25 33 -7 115 25
75 71 74 82 80 77 88 79 63 100 141 332 472 624 474 429 290 252 268 166 101 15 54 100 74 170 115 81 -15 29 42 55 116 224 139 166 156 115 70 71 60 32 6 55 92 -23 -16
48 56 71 80 86 82 78 82 82 88 91 349 478 465 365 359 257 290 220 118 78 94 79 83 16 111 171 60 15 -27 17 51 180 275 226 117 163 71 139 39 88 38 4 17 40 45 25
49 62 80 96 103 104 111 102 95 94 119 211 348 544 554 361 389 249 160 105 63 91 95 59 -9 43 88 117 165 75 131 114 137 483 368 369 178 125 129 170 103 120 48 68 60 54 55
70 64 46 54 67 109 121 116 87 76 82 212 107 340 509 415 272 193 81 101 80 96 66 43 18 31 65 187 67 95 -51 -86 32 188 508 513 373 228 204 168 125 101 73 99 84 50 35
39 57 65 61 62 90 119 108 101 93 73 195 196 176 488 362 298 151 155 105 95 101 99 43 25 31 102 74 112 43 45 81 -95 -111 0 441 550 258 224 230 166 202 118 21 12 54 59
48 68 73 49 43 84 98 117 106 99 90 212 186 84 311 336 196 161 167 129 72 59 80 76 48 107 43 145 -41 -31 25 87 -75 -128 -124 134 363 290 218 273 201 122 58 36 38 -19 33
55 62 13 25 32 96 108 68 86 87 93 228 143 103 193 259 138 202 180 146 53 48 95 72 115 140 200 78 66 51 57 90 53 -17 -95 -22 250 204 264 205 163 85 72 38 39 116 75
34 18 31 3 42 45 38 68 57 90 127 197 166 107 205 182 119 221 177 222 113 96 58 99 96 94 194 225 193 168 170 102 114 118 63 10 110 116 273 237 149 72 27 54 71 67 39

GFSGBSN_con_3kmhel_039.txt.gz
Helicity
84 128 73 51 11 35 54 50 63 71 58 54 53 58 58 68 69 59 53 57 73 64 52 54 63 69 26 71 59 83 90 66 53 60 34 10 25 9 84 -40 -59 19 20 -13 -39 -16 91
71 61 54 78 97 43 24 62 44 42 59 52 45 53 63 69 69 69 54 59 55 62 56 50 65 76 10 26 54 131 50 60 28 49 7 29 18 2 -52 -71 -101 -82 -31 -43 -7 22 109
63 69 72 67 62 65 74 60 59 59 51 52 44 52 53 70 67 69 70 53 42 47 52 32 41 38 16 89 54 103 57 51 28 16 7 5 13 -4 -33 -50 -74 -52 -76 -40 35 57 121
77 63 47 51 39 70 68 73 71 81 73 59 54 42 49 54 55 54 50 50 34 37 49 23 23 37 15 47 52 4 28 -36 39 2 11 3 35 25 -27 -19 -58 -33 -53 3 29 142 163
72 65 65 61 59 60 66 64 65 70 69 65 61 64 58 42 41 57 45 53 61 72 33 6 43 36 17 38 66 -3 -7 24 27 5 -26 -7 48 -1 -36 -22 -30 -43 47 67 103 91 153
41 41 53 53 50 54 58 53 52 57 59 62 70 67 81 71 51 44 59 88 110 47 20 11 63 61 60 56 43 73 7 11 27 49 33 15 42 7 -19 -5 -3 49 33 25 13 139 97
43 42 31 30 35 38 39 38 47 54 53 59 63 63 70 86 83 58 52 40 82 87 64 56 57 95 43 114 71 52 35 23 -10 79 66 43 44 13 5 20 55 45 3 -2 19 98 191
42 39 33 27 29 27 26 31 40 49 53 61 67 64 60 76 83 73 85 85 75 66 11 31 35 46 27 55 121 95 61 84 65 40 96 48 47 53 10 3 -7 14 4 -22 -46 48 36
49 47 36 31 25 26 31 35 41 45 46 53 68 70 64 68 60 85 130 87 136 207 39 -76 29 92 87 58 8 17 69 29 87 79 83 91 26 55 35 15 11 -68 -11 -60 -42 24 15
50 52 46 37 31 39 56 59 55 50 47 48 58 72 72 78 67 83 127 147 132 150 34 1 78 92 99 122 89 11 5 87 85 59 26 67 21 7 -11 68 24 -18 6 1 -6 -16 -10
57 54 48 47 51 64 76 65 52 47 53 58 54 74 69 65 93 38 150 185 311 93 130 33 93 35 70 279 248 58 9 78 103 67 119 95 37 -9 -8 -22 44 -30 -19 18 57 -25 -29
49 50 48 48 55 66 73 66 59 58 50 57 54 64 74 98 16 -45 55 172 266 267 197 167 114 150 142 83 150 212 105 71 137 83 23 9 29 -49 -37 -3 31 -60 44 50 8 15 -32
35 36 40 42 40 51 54 53 66 73 66 55 46 50 83 100 42 104 -7 193 371 414 212 219 215 172 133 127 54 48 144 154 186 148 89 15 -18 -7 -38 33 51 -84 5 68 52 68 21
35 33 36 34 37 35 40 48 55 68 75 60 38 37 77 75 39 50 88 262 436 312 372 127 83 112 72 114 91 64 47 127 99 126 126 105 49 -47 -45 30 72 -15 31 123 50 46 -22
43 35 36 31 34 41 38 41 49 66 73 38 23 82 109 52 52 77 150 248 362 363 202 145 103 229 232 71 84 80 68 57 101 108 179 149 89 79 5 0 102 -26 42 87 92 69 12
32 38 26 28 24 34 36 35 33 61 65 41 113 127 123 4 57 120 251 155 155 150 219 219 -44 50 201 112 56 93 113 59 83 86 110 104 113 7 -6 32 56 80 40 64 72 66 -18
19 11 12 32 25 21 19 20 31 44 41 46 137 173 146 43 161 199 192 224 78 107 60 24 166 113 113 122 58 55 146 61 53 97 114 82 31 32 16 49 87 118 42 45 82 122 58
1 -2 21 16 14 12 18 36 31 27 18 58 163 217 108 197 225 253 145 241 89 97 50 46 54 74 135 124 112 151 96 93 95 3 137 116 48 28 38 85 68 137 99 63 194 136 81
-18 3 3 7 8 19 35 41 42 49 28 121 211 339 172 320 304 222 145 58 -8 52 127 129 22 43 1 154 104 32 -24 -43 -115 60 82 91 82 56 82 38 107 75 66 96 78 189 104
-7 -6 -2 2 8 16 40 49 62 49 18 110 257 414 437 323 310 224 266 104 23 101 22 66 44 73 97 120 83 174 -66 -173 -62 22 99 80 136 85 36 110 119 146 109 10 69 170 84
-15 -16 -23 -8 5 24 53 34 10 25 21 103 272 455 584 427 385 264 213 180 29 93 58 36 104 5 -36 126 138 189 -24 -124 -40 -68 72 44 92 67 83 78 98 122 64 26 -14 80 120
-26 -25 3 73 65 57 45 52 63 52 5 107 214 434 525 506 329 272 252 155 109 94 152 100 86 58 23 42 113 192 57 -148 -161 -84 -65 88 94 68 82 102 84 128 140 33 47 59 84
-3 18 41 31 29 27 26 34 26 15 0 156 255 307 336 355 404 351 249 131 115 170 141 55 88 58 52 -80 127 71 120 -24 -138 -72 44 124 162 108 71 181 193 103 122 111 64 2 50
31 38 39 48 56 60 53 47 28 8 16 99 261 341 405 398 391 386 258 179 117 149 90 183 85 97 30 83 67 96 84 26 -68 -124 8 361 360 240 186 184 179 25 49 61 97 35 -22
40 48 50 42 50 62 72 82 66 25 18 58 213 416 469 367 278 273 231 221 113 169 99 82 81 111 47 123 90 101 90 -35 -115 0 42 208 51 380 258 238 141 104 213 75 107 58 30
37 36 40 49 57 68 76 63 85 58 20 105 127 117 328 338 465 257 299 268 240 181 114 100 13 59 15 102 173 72 38 -41 -103 -101 18 50 82 247 283 187 158 58 155 123 132 124 110
17 30 42 53 59 72 74 64 79 102 61 135 205 120 162 307 285 233 271 248 223 205 114 87 75 33 23 126 209 138 129 31 -11 -26 -109 87 179 37 236 238 176 95 98 76 161 135 78
10 8 29 43 74 93 76 84 87 101 92 155 199 198 236 255 134 273 232 191 150 158 179 135 120 64 67 149 188 178 157 85 62 44 23 35 6 16 126 238 166 241 168 103 130 55 42
17 4 42 49 69 76 52 71 67 88 95 146 280 262 249 195 80 95 134 246 141 132 167 158 123 75 109 183 177 154 145 96 8 39 52 27 14 -10 -85 158 138 244 25 128 148 25 106

GFSGBSN_con_3kmhel_042.txt.gz
Helicity
63 67 70 97 72 48 5 30 15 4 22 40 37 33 26 18 38 38 43 56 54 57 77 98 95 87 52 78 48 72 78 77 85 75 47 36 18 40 55 29 -50 -8 -19 -42 -23 29 78
99 96 81 93 123 124 90 10 5 37 8 25 27 10 19 27 31 17 37 40 48 39 54 78 77 66 2 17 38 65 131 112 60 84 50 49 12 44 40 -3 -2 -90 -26 -36 -50 -56 70
94 84 87 57 94 67 87 76 78 26 38 27 32 13 21 17 21 28 27 36 49 49 52 65 57 27 9 53 46 123 122 81 60 72 57 11 7 85 40 -29 -5 -62 -86 -87 -91 -55 42
71 60 53 61 71 84 62 35 24 38 61 43 28 36 27 29 29 20 14 38 54 78 79 68 31 20 0 49 58 7 13 -27 32 20 22 26 60 83 31 -6 -34 -36 -104 -76 -26 65 87
58 50 58 59 50 63 72 60 73 66 48 41 56 49 69 59 59 53 28 38 97 127 50 37 31 45 18 34 87 89 54 52 75 30 32 98 134 59 41 34 10 -46 -44 -31 26 69 127
45 50 59 62 51 53 35 52 48 32 31 44 41 47 49 61 60 59 63 99 171 71 40 51 58 74 54 77 71 121 82 83 85 80 88 95 133 81 88 89 7 23 -8 -20 56 56 96
62 59 57 50 51 41 39 31 35 39 44 45 46 41 43 35 45 46 33 20 50 61 102 79 74 69 58 106 59 126 101 106 94 122 140 128 92 113 54 33 -7 -45 -13 61 148 116 142
69 69 60 52 41 31 33 31 33 36 46 48 52 51 48 43 56 52 49 68 72 72 -19 75 49 18 -4 59 51 86 130 156 184 126 158 156 -5 25 60 35 -10 -8 8 71 80 40 83
68 80 77 70 46 39 31 25 34 38 43 47 51 56 52 35 43 50 63 126 206 202 -11 -152 34 59 80 63 45 22 96 119 149 147 120 132 57 32 45 13 15 -39 -4 56 68 13 73
75 81 79 73 50 40 36 32 40 46 46 47 45 47 49 42 65 50 73 86 209 165 22 -33 37 8 111 126 81 24 49 110 177 108 99 108 21 16 65 49 44 52 41 33 -5 52 77
73 75 69 63 47 43 42 45 54 56 53 47 46 48 48 43 43 39 76 148 280 105 81 14 66 24 67 204 184 113 82 158 94 112 193 136 75 85 54 -5 34 52 86 13 8 41 65
88 74 64 54 48 45 49 48 61 62 55 45 43 43 48 60 50 64 29 168 176 205 104 119 106 81 114 52 181 131 208 215 109 98 83 89 59 64 72 46 73 37 30 19 68 87 -3
98 91 73 50 51 44 47 37 60 69 58 41 38 42 65 72 75 86 -1 124 242 239 204 169 139 107 132 95 72 196 195 228 215 200 95 82 26 17 42 65 61 15 104 96 93 153 45
84 88 81 67 49 39 46 41 56 78 59 34 29 28 70 61 77 92 50 162 246 205 234 131 238 297 254 134 74 41 133 192 162 204 122 134 113 41 60 90 59 73 109 132 70 84 68
73 73 67 61 56 51 52 41 58 67 68 41 38 106 128 34 74 106 179 227 299 248 242 183 122 266 194 162 140 116 106 94 126 180 194 108 99 56 49 64 82 72 139 79 118 119 109
47 53 56 49 43 41 43 47 55 63 50 31 101 154 148 65 119 169 209 187 240 180 164 236 169 238 306 242 215 244 219 119 121 141 131 97 64 77 79 59 46 102 58 130 175 133 85
46 41 42 40 38 37 34 42 40 52 54 27 101 171 134 179 178 225 188 232 102 154 201 78 83 153 173 152 253 233 200 142 70 65 75 124 108 68 78 48 60 114 128 122 133 163 122
45 38 38 40 26 17 23 43 47 45 45 43 111 191 145 252 207 219 120 254 200 179 219 48 59 -30 -63 14 102 89 110 185 60 37 144 119 59 135 24 31 91 79 66 111 162 202 165
38 36 40 8 -5 -1 22 20 30 49 35 101 137 196 130 313 255 176 196 84 92 159 137 102 62 3 32 -59 40 27 27 62 -27 1 69 123 126 167 135 24 -8 71 81 110 218 223 144
38 38 4 -20 -17 -1 11 4 22 42 50 79 115 208 289 256 224 76 129 86 83 63 31 72 99 73 12 -64 104 41 80 25 70 -22 -86 -64 85 91 98 19 64 79 80 123 172 210 190
27 -12 -27 -22 -5 1 -1 10 24 50 79 105 136 217 334 307 109 169 145 109 62 92 107 63 31 3 24 -55 -89 94 12 33 10 15 -28 -15 75 105 60 53 87 66 101 113 143 208 201
-16 -29 -20 -10 -7 -6 0 10 19 48 78 131 259 265 343 346 206 198 163 68 135 85 140 46 106 69 75 51 69 -109 112 132 -83 85 63 10 -59 -5 -15 89 77 56 2 102 79 148 159
-21 -16 -11 -9 -18 -11 5 37 65 57 38 183 170 173 301 258 287 238 191 172 171 161 106 -38 45 68 78 80 57 63 18 10 39 -79 1 -77 -28 -24 -60 171 139 95 -74 58 106 84 107
-15 -10 -6 1 21 24 17 16 16 8 23 157 252 289 310 315 273 182 208 151 164 148 88 105 69 33 41 84 95 85 64 40 43 78 3 -122 -144 -70 4 186 143 97 54 78 76 103 132
-3 6 18 29 37 40 37 27 22 21 32 107 183 279 210 187 165 140 227 237 152 170 114 67 32 2 66 85 122 97 116 90 36 79 89 61 -72 -120 -34 232 168 106 109 176 163 92 84
8 14 25 33 41 50 55 49 49 26 22 121 176 190 256 208 87 67 144 224 250 193 136 110 87 46 6 85 183 137 120 155 92 170 86 122 44 -7 -65 -113 175 83 69 96 71 96 127
17 17 24 22 31 35 44 55 56 48 20 117 163 224 200 202 187 164 224 210 244 237 162 196 102 110 74 99 154 156 140 117 168 143 123 41 45 -15 34 -81 83 62 219 55 135 89 136
26 34 18 16 21 29 46 58 59 66 52 116 146 175 223 162 163 187 206 252 216 186 171 184 235 169 177 157 159 173 152 156 198 191 111 0 -55 -11 -70 -71 12 84 124 221 265 187 167
7 27 30 29 24 34 52 51 58 55 61 84 191 188 168 229 177 102 63 94 147 171 190 209 179 199 162 184 157 161 192 162 173 183 195 64 69 4 23 8 0 1 26 127 160 118 124

GFSGBSN_con_3kmhel_045.txt.gz
Helicity
70 71 84 84 90 60 38 55 47 50 58 78 60 -4 35 38 44 32 24 37 38 33 34 77 94 91 37 64 49 81 91 82 87 78 65 56 92 71 86 81 111 110 2 -49 -1 15 42
74 75 84 99 111 105 87 65 67 44 32 40 32 29 25 29 37 18 25 30 48 42 35 59 73 72 19 28 34 83 105 87 102 94 77 71 49 77 92 52 79 54 -27 -17 -54 3 23
79 86 86 92 94 93 106 94 94 75 43 16 33 -2 11 51 52 58 38 28 48 42 62 65 61 31 31 63 57 89 102 106 91 83 44 73 53 159 139 37 39 42 -41 -75 -47 -35 -2
61 79 73 82 88 81 66 53 39 62 45 45 10 1 24 20 11 36 63 47 66 82 86 73 55 15 30 50 10 37 45 34 25 33 50 83 128 130 109 70 77 47 -9 -67 -57 -15 8
71 74 66 74 83 85 80 51 20 22 26 75 60 72 22 18 44 54 35 53 115 123 65 60 45 40 19 50 64 102 100 65 57 58 64 100 188 128 116 128 71 83 16 -30 -88 -29 21
65 74 83 75 72 66 65 51 38 38 26 21 28 37 21 24 53 56 58 137 115 71 117 82 80 72 61 58 42 126 100 108 126 115 129 153 197 167 139 146 69 78 89 49 25 -14 -15
65 77 80 73 67 49 57 45 47 43 40 36 35 45 12 -16 25 34 44 0 51 31 126 91 75 76 93 82 70 114 134 99 167 184 201 206 192 199 153 79 92 117 110 74 -12 72 55
57 69 86 86 80 69 63 48 43 44 46 44 45 42 46 28 29 22 15 -23 17 12 -13 81 51 19 4 15 68 111 122 135 193 196 207 231 77 128 85 97 62 66 76 33 56 71 72
56 67 76 82 80 77 80 59 51 44 41 45 41 46 39 27 36 49 39 52 90 83 -21 -121 90 87 117 97 73 2 79 110 155 196 176 229 122 121 135 104 81 45 81 41 76 82 88
64 68 75 81 79 76 77 62 47 44 45 47 40 42 32 26 54 46 79 67 83 21 -24 -49 6 3 115 202 75 73 79 106 145 117 172 168 14 131 86 66 135 59 45 47 82 101 172
63 72 75 79 78 77 72 60 46 45 48 51 44 41 31 49 42 64 97 66 115 44 46 32 13 39 63 94 123 59 149 215 136 136 213 182 78 111 101 32 166 46 53 101 104 79 137
69 74 67 86 77 72 71 67 51 51 53 51 49 37 35 64 79 114 26 97 103 86 75 99 49 54 73 35 155 156 224 243 121 117 138 121 94 111 104 73 108 58 94 141 135 136 123
70 68 71 77 75 83 76 77 54 56 44 54 55 33 43 92 89 82 30 161 134 116 162 191 184 101 99 76 68 184 196 255 215 185 128 132 75 97 92 115 108 147 155 140 135 178 97
75 66 63 70 77 79 83 78 61 58 64 49 45 43 42 75 72 64 78 240 131 90 201 140 230 305 157 96 102 105 189 246 214 196 136 137 109 90 107 82 109 137 161 189 116 123 73
66 62 62 69 76 70 68 73 57 63 66 52 45 62 86 44 102 93 136 259 235 196 290 316 246 221 229 209 151 120 100 130 151 194 168 85 96 92 79 137 144 88 151 119 137 118 84
52 52 66 82 79 66 58 60 47 54 61 56 86 101 121 98 138 134 188 232 221 242 241 156 262 213 299 275 232 211 185 138 111 93 162 130 73 78 95 114 144 107 141 184 202 110 99
51 61 72 72 65 58 51 45 41 48 47 57 98 117 112 195 188 183 211 270 189 154 234 174 48 156 201 265 293 359 280 165 182 259 98 123 138 103 47 89 152 161 100 128 115 138 90
53 60 63 57 48 48 37 30 36 35 44 61 133 148 98 289 240 261 146 232 107 170 131 79 50 32 0 47 161 207 288 265 66 72 266 171 145 97 48 18 50 102 117 70 140 152 140
54 60 53 40 46 33 37 41 40 34 35 119 163 144 81 232 239 205 174 94 208 235 131 125 84 44 -34 18 43 79 150 103 66 27 178 117 247 144 92 84 56 72 93 116 97 114 106
56 56 41 30 31 35 34 34 12 28 35 116 128 143 211 233 326 169 213 106 91 80 82 155 112 72 48 51 104 46 102 175 198 49 79 117 179 169 157 178 173 200 259 140 126 110 97
53 47 36 36 38 33 31 6 14 20 33 122 148 178 226 257 274 239 152 109 72 76 58 66 44 47 56 25 37 80 103 90 81 37 2 44 149 135 125 97 79 79 137 193 188 120 146
47 47 37 40 41 20 -7 -10 1 25 33 136 212 233 271 222 195 191 186 117 75 37 69 25 67 79 46 51 86 88 57 66 87 108 54 3 20 37 7 36 75 50 101 88 138 131 119
52 41 41 39 5 -8 -8 -4 2 37 66 185 200 211 249 241 195 139 132 76 50 55 9 13 -4 17 47 36 24 50 95 69 61 116 81 26 40 -39 -50 -87 -29 60 -48 31 44 49 61
40 39 25 -1 -6 -4 -1 -1 10 46 56 196 249 258 251 48 45 81 56 19 64 80 74 14 -77 -8 27 87 64 61 55 57 55 84 152 109 54 -8 -219 -206 -180 -111 47 23 88 52 35
12 2 0 0 4 7 12 16 22 18 26 160 225 252 269 14 167 41 108 54 3 38 62 23 55 40 47 59 108 81 65 20 55 92 132 170 143 48 -39 -109 -113 -231 -61 -36 15 135 241
17 13 16 9 9 9 21 33 45 51 41 110 175 279 286 193 34 220 98 115 201 110 67 81 98 48 42 18 86 93 64 82 56 50 172 244 192 166 137 29 -82 -41 -77 110 39 67 116
13 26 25 22 25 33 40 44 45 49 53 132 201 235 316 227 215 154 238 211 224 158 97 128 94 100 85 120 109 90 107 138 134 96 153 204 191 146 111 42 21 -75 -7 -37 -16 66 196
10 8 11 17 22 29 36 29 31 49 35 121 131 115 197 195 266 243 195 156 180 230 224 95 101 88 103 139 138 133 118 93 137 139 164 157 129 168 133 95 -1 -22 60 -57 -68 302 316
18 22 15 14 17 38 37 23 30 46 54 90 185 204 177 198 130 122 141 100 147 89 173 185 172 144 124 175 172 143 147 162 108 133 158 204 236 127 98 94 52 -4 15 -18 -46 -72 338

GFSGBSN_con_3kmhel_051.txt.gz
Helicity
87 99 92 81 73 82 86 80 81 82 67 61 50 55 43 44 45 39 51 65 64 56 57 74 59 65 -31 26 53 51 37 73 82 44 42 81 115 140 140 130 136 74 -18 52 -0 -1 12
64 52 58 72 86 85 71 64 60 65 61 58 51 47 39 46 51 60 46 47 65 63 32 55 54 22 -6 20 36 41 96 70 41 41 26 54 61 87 130 131 141 86 -9 -23 -5 23 49
45 50 68 67 60 58 66 66 72 66 63 56 54 53 45 29 28 27 65 55 44 111 68 37 36 18 19 57 44 34 70 77 43 65 72 76 99 134 130 136 115 126 15 -16 -7 39 43
51 55 64 58 80 84 72 60 58 64 65 56 55 54 50 43 35 16 1 26 87 126 52 22 17 9 -4 38 37 24 38 65 44 61 93 102 115 140 167 161 179 142 108 22 36 74 99
50 48 54 50 63 54 55 51 61 72 71 71 64 54 49 47 41 25 3 37 142 60 72 55 119 43 -85 62 42 71 8 54 93 91 85 141 129 162 171 171 145 140 78 59 32 68 68
48 50 51 50 57 59 56 63 74 79 74 69 67 53 48 39 38 30 36 40 44 42 49 33 102 69 56 78 58 65 54 79 146 128 156 118 186 186 207 210 140 130 111 72 61 95 74
39 52 47 39 45 52 54 59 63 66 64 66 67 48 44 36 37 35 48 2 90 79 89 52 42 73 125 52 53 70 64 65 149 194 160 202 213 141 218 157 126 105 103 64 70 79 78
55 44 39 31 34 38 61 63 65 69 69 64 71 53 44 29 30 38 28 8 54 38 -49 28 12 -1 -33 112 113 82 58 103 117 132 175 233 125 88 125 136 126 107 84 58 39 61 75
37 26 31 29 44 44 80 60 60 62 71 68 71 60 59 31 22 42 48 13 49 45 4 -18 28 41 41 84 93 14 73 94 131 104 156 181 132 129 112 128 117 87 59 56 34 113 68
49 30 32 29 47 53 65 75 73 65 69 71 77 79 68 38 70 54 72 65 33 23 -44 -18 2 27 58 118 71 71 37 103 129 60 129 122 119 26 132 93 121 69 67 57 50 83 61
47 41 42 41 36 58 58 45 66 66 70 77 77 90 78 56 53 93 54 59 19 26 -3 22 26 15 19 46 148 128 90 123 139 122 139 134 109 136 125 52 105 71 56 32 58 66 107
50 50 44 40 38 54 44 66 63 69 70 80 86 93 91 59 46 49 28 70 59 46 2 89 57 35 8 44 95 97 107 203 118 141 150 90 82 79 88 101 48 70 69 107 117 117 67
58 46 52 49 50 57 60 57 62 69 72 81 92 104 94 67 80 46 38 114 99 92 104 142 137 91 81 52 49 77 103 159 228 192 139 131 96 97 96 105 134 119 118 175 170 161 114
53 54 57 57 59 63 59 51 65 69 75 79 98 89 76 76 70 54 69 156 121 153 154 84 56 108 74 94 45 49 105 127 168 200 124 143 104 118 121 157 143 116 144 205 148 149 105
72 62 70 72 64 57 53 75 71 78 72 74 109 83 76 77 95 85 140 198 197 124 164 147 208 138 133 144 137 86 65 103 129 168 150 86 98 97 108 156 122 133 152 109 156 165 121
77 74 64 57 56 59 56 65 79 76 64 74 108 105 99 95 122 169 209 206 226 232 130 110 143 136 179 260 186 198 134 129 163 95 155 148 124 121 104 104 131 97 85 150 183 137 106
71 69 83 78 63 61 58 71 75 72 53 90 116 109 82 134 150 187 251 219 154 89 114 130 71 116 131 186 246 250 266 154 254 204 88 144 196 205 216 163 116 142 132 173 152 166 124
69 73 57 54 53 56 59 63 63 61 53 112 131 145 87 113 198 267 263 236 161 102 134 100 30 -32 4 57 183 250 225 216 291 202 217 171 130 128 130 105 99 161 192 198 153 158 168
68 57 49 50 55 53 58 51 55 54 55 137 157 144 111 77 232 216 243 192 170 119 94 120 96 65 9 -54 5 61 142 104 176 205 232 240 210 185 198 164 177 183 189 195 162 166 124
42 48 43 49 44 52 47 34 48 47 29 105 162 175 156 150 126 143 176 159 153 116 57 94 73 52 52 52 14 37 83 88 156 168 143 136 188 209 177 208 242 272 293 233 157 130 130
26 32 28 31 34 41 37 31 42 47 17 110 171 202 206 165 148 93 115 104 102 103 56 14 57 51 81 97 132 70 82 132 153 138 141 133 149 153 152 137 116 126 186 224 157 160 89
17 17 18 19 24 28 26 26 37 42 5 120 201 236 200 149 107 91 120 114 176 118 102 78 49 32 33 65 67 139 143 140 135 215 161 159 162 111 106 78 78 67 75 92 96 96 78
-12 12 18 26 32 23 16 29 41 35 23 156 129 102 168 113 77 68 54 49 77 95 63 72 58 28 16 47 68 34 94 94 100 158 187 194 109 96 105 95 83 101 66 37 59 48 61
-26 -43 -12 16 11 19 20 27 51 30 26 135 167 154 121 73 104 41 11 -26 -8 84 45 14 28 36 44 52 66 58 55 34 57 86 92 161 168 148 86 116 76 70 80 66 54 46 52
-23 -17 -12 -2 6 15 21 20 29 32 28 99 86 102 106 12 -9 11 -13 -32 -13 -6 17 114 54 22 13 64 69 88 87 85 57 53 63 65 161 169 132 92 86 61 59 49 56 85 44
-11 -5 1 -0 5 6 14 21 23 28 29 55 45 64 65 -22 17 7 2 -22 -0 9 168 49 124 67 42 68 48 72 105 106 104 91 81 93 78 81 103 41 29 68 40 15 -8 61 9
11 5 3 10 8 7 -6 -5 -1 2 9 23 32 26 124 24 22 24 20 15 32 48 53 121 126 62 60 90 59 58 71 84 94 83 83 136 115 38 70 59 19 2 -13 18 15 35 11
19 20 22 23 19 3 -17 5 28 -9 -21 12 15 109 83 76 69 29 121 106 85 81 110 99 100 76 95 95 78 61 42 54 67 79 76 80 85 90 67 51 26 39 58 40 48 29 45
41 36 7 -4 8 6 11 5 38 -12 -5 15 47 150 195 183 105 114 70 109 118 104 104 109 88 88 98 102 104 74 82 58 45 64 100 90 93 76 81 72 83 39 45 54 42 16 12